GEFSMA_con_probscp_144.txt.gz
Probability
0 0 0 0 0 0 0 0 0 0 0 0 0 0 0 0 0 0 0 0 0 0 0 0 0 0 0 0 0 0 0 0 0 0 0 0 0 0 0 0 0 0 0
2 1 0 0 0 0 0 0 0 0 0 0 0 0 0 0 0 0 0 0 0 0 0 0 0 0 0 0 0 0 0 0 0 0 0 0 0 0 0 0 0 0 0
8 4 1 0 1 0 0 0 0 0 0 0 0 0 0 0 0 0 0 0 0 0 0 0 0 0 0 0 0 0 0 0 0 0 0 0 0 0 0 0 0 0 0
11 8 3 2 3 2 1 1 0 0 0 0 0 0 0 0 0 0 0 0 0 0 0 0 0 0 0 0 0 0 0 0 0 0 0 0 0 0 0 0 0 0 0
11 9 5 4 4 2 1 1 1 0 0 0 0 0 0 0 0 0 0 0 0 0 0 0 0 0 0 0 0 0 0 0 0 0 0 0 0 0 0 0 0 0 0
10 8 5 5 5 3 1 1 2 1 0 0 0 0 0 0 0 0 0 0 0 0 0 0 0 0 0 0 0 0 0 0 0 0 0 0 0 0 0 0 0 0 0
9 7 6 6 8 7 4 3 3 1 1 1 1 0 0 0 0 0 0 0 0 0 0 0 0 0 0 0 0 0 0 0 0 0 0 0 0 0 0 0 0 0 0
10 8 7 8 10 10 8 6 5 3 2 2 2 1 0 0 0 0 0 0 0 0 0 0 0 0 0 0 0 0 0 0 0 0 0 0 0 0 0 0 0 0 0
10 10 10 10 11 10 8 7 7 5 4 4 3 1 0 0 0 0 0 0 0 0 0 0 1 1 0 0 0 0 0 0 0 0 0 0 0 0 0 0 0 0 0
10 11 13 14 12 9 7 7 7 6 6 5 3 2 1 0 0 0 0 0 0 0 0 0 1 1 1 1 1 1 0 0 0 0 0 0 0 0 0 0 0 0 1
10 11 15 17 15 12 9 8 8 7 6 5 5 4 2 1 0 0 0 0 0 0 0 0 0 1 2 2 2 2 1 0 0 0 0 0 0 0 0 0 0 0 1
11 11 15 18 17 13 12 13 11 8 7 7 6 5 3 1 0 0 0 0 0 0 0 0 1 2 3 3 3 2 1 0 0 0 0 0 0 0 0 0 0 0 1
12 12 16 20 18 14 15 17 16 11 9 8 8 6 4 2 1 1 1 0 0 0 0 1 2 3 4 3 3 1 0 0 0 0 0 0 0 0 0 0 0 0 0
13 17 22 25 23 19 17 20 20 16 13 12 10 7 5 3 3 3 2 1 1 0 1 2 3 5 5 4 2 1 0 0 0 0 0 0 0 0 0 0 0 0 0
15 21 25 27 27 24 22 24 23 20 19 17 14 10 8 6 5 5 5 4 2 1 2 3 4 5 5 4 1 0 0 0 0 0 0 0 0 0 0 0 0 0 0
17 20 23 25 27 26 25 25 23 21 21 21 18 14 13 11 9 9 8 7 4 2 2 3 4 6 7 5 2 1 1 0 0 0 0 0 0 0 0 0 0 0 0
15 16 18 21 23 24 24 23 19 18 20 22 18 15 14 13 10 9 9 8 5 2 2 3 5 10 12 9 6 4 2 0 0 0 0 0 0 0 0 0 0 0 0
11 12 14 16 18 20 22 22 18 16 19 21 19 16 14 11 8 7 6 5 3 2 2 2 5 11 15 13 11 8 4 1 0 0 0 0 0 0 0 0 0 0 0
13 12 14 15 17 19 22 23 21 19 19 20 20 18 14 10 7 6 6 5 3 3 4 3 4 9 13 13 12 9 5 3 1 0 0 0 0 0 0 0 0 0 0
16 16 17 18 18 20 22 24 23 21 19 19 18 16 14 11 9 8 7 7 6 5 7 6 5 7 10 9 9 7 4 3 2 1 1 0 0 0 0 0 0 0 0
19 20 21 20 18 17 16 18 19 18 17 16 15 14 12 10 8 7 7 7 6 6 7 7 5 5 5 5 5 5 3 2 2 2 1 0 0 0 1 1 1 0 0
23 24 25 22 17 12 9 9 11 13 14 15 15 13 10 8 6 4 4 3 3 4 5 5 5 4 4 5 5 4 3 2 1 1 1 1 1 1 3 3 1 0 0
29 28 27 24 18 12 6 3 5 9 12 14 15 14 11 7 5 3 2 0 1 1 1 2 3 5 6 6 6 4 3 2 2 2 2 1 1 2 2 2 1 0 0
31 30 27 26 22 14 5 1 2 7 11 12 14 14 12 8 4 2 1 0 0 0 0 0 1 3 4 5 5 5 3 2 2 2 2 1 1 1 1 0 0 0 0
30 28 26 25 22 14 6 1 2 6 9 9 9 11 10 7 3 1 0 0 0 1 1 0 0 1 1 2 4 4 2 1 1 1 2 1 0 0 0 0 0 0 0
29 26 24 23 21 15 6 1 2 7 9 8 6 6 6 4 1 0 0 0 0 1 1 1 0 0 0 1 2 3 2 1 0 1 2 1 0 0 0 0 0 0 0

GEFSMA_con_probscp_150.txt.gz
Probability
0 0 0 0 0 0 0 0 0 0 0 0 0 0 0 0 0 0 0 0 0 0 0 0 0 0 0 0 0 0 0 0 0 0 0 0 0 0 0 0 0 0 0
0 0 0 0 0 0 0 0 0 0 0 0 0 0 0 0 0 0 0 0 0 0 0 0 0 0 0 0 0 0 0 0 0 0 0 0 0 0 0 0 0 0 0
0 0 0 0 0 0 0 0 0 0 0 0 0 0 0 0 0 0 0 0 0 0 0 0 0 0 0 0 0 0 0 0 0 0 0 0 0 0 0 0 0 0 0
0 0 0 0 0 0 0 0 0 0 0 0 0 0 0 0 0 0 0 0 0 0 0 0 0 0 0 0 0 0 0 0 0 0 0 0 0 0 0 0 0 0 0
1 1 0 0 0 0 0 0 0 0 0 0 0 0 0 0 0 0 0 0 0 0 0 0 0 0 0 0 0 0 0 0 0 0 0 0 0 0 0 0 0 0 0
3 2 1 0 0 0 0 0 0 0 0 0 0 0 0 0 0 0 0 0 0 0 0 0 0 0 0 0 0 0 0 0 0 0 0 0 0 0 0 0 0 0 0
4 4 3 1 0 0 0 0 0 0 0 0 0 0 0 0 0 0 0 0 0 0 0 0 0 0 0 0 0 0 0 0 0 0 0 0 0 0 0 0 0 0 0
3 3 3 2 1 0 0 0 0 0 0 0 0 0 0 0 0 0 0 0 0 0 0 0 0 0 0 0 0 0 0 0 0 0 0 0 0 0 0 0 0 0 0
1 2 2 1 1 0 0 0 0 0 0 0 0 0 0 0 0 0 0 0 0 0 0 0 0 0 0 0 0 0 0 0 0 0 0 0 0 0 0 0 0 0 0
0 0 0 0 0 0 0 0 0 0 0 0 0 0 0 0 0 0 0 0 0 0 0 0 0 0 0 0 0 0 0 0 0 0 0 0 0 0 0 0 0 0 0
0 0 0 0 0 0 0 0 0 0 0 0 0 0 0 0 0 0 0 0 0 0 0 0 0 0 0 0 0 0 0 0 0 0 0 0 0 0 0 0 0 0 0
0 0 0 0 0 0 0 0 0 0 0 0 0 0 0 0 0 0 0 0 0 0 0 0 0 0 0 0 0 0 0 0 0 0 0 0 0 0 0 0 0 0 0
0 0 0 0 0 0 0 0 0 0 0 0 0 0 0 0 0 0 0 0 0 0 0 0 0 0 0 0 0 0 0 0 0 0 0 0 0 0 0 0 0 0 0
0 0 0 0 0 0 0 0 0 0 0 0 0 0 0 0 0 0 0 0 0 0 0 0 0 0 0 0 0 0 0 0 0 0 0 0 0 0 0 0 0 0 0
0 0 0 0 0 1 1 1 1 0 0 0 0 0 0 0 0 0 0 0 0 0 0 0 0 0 0 0 0 0 0 0 0 0 0 0 0 0 0 0 0 0 0
0 0 0 1 1 2 2 2 1 0 0 0 0 0 0 0 0 0 0 0 0 0 0 0 0 0 0 0 0 0 0 0 0 0 0 0 0 0 0 0 0 0 0
1 1 1 2 2 3 3 3 2 1 1 1 0 0 0 0 0 0 0 0 0 0 0 0 0 0 0 0 0 0 0 0 0 0 0 0 0 0 0 0 0 0 0
2 1 1 2 2 2 3 3 3 3 2 2 1 0 0 0 0 0 0 0 0 0 0 0 0 0 0 0 0 0 0 0 0 0 0 0 0 0 0 0 0 0 0
2 1 0 1 1 1 3 4 4 4 3 3 3 2 1 1 1 1 1 0 0 0 0 0 0 0 0 0 0 0 0 0 0 0 0 0 0 0 0 0 0 0 0
1 0 0 0 0 2 4 5 6 5 4 4 4 4 3 2 2 2 2 1 1 1 0 0 0 0 0 0 0 0 0 0 0 0 0 0 0 0 0 0 0 0 0
3 2 2 1 1 2 4 6 6 6 4 3 4 4 3 2 1 1 2 2 2 2 1 0 0 0 0 0 0 0 0 0 0 0 0 0 0 0 0 0 0 0 0
6 7 6 4 2 3 3 4 5 5 4 3 3 3 3 2 0 0 1 1 1 2 1 0 0 0 0 0 0 0 0 0 0 0 0 0 0 0 0 0 0 0 0
9 10 9 6 4 3 2 1 2 4 4 3 3 3 3 2 1 1 0 0 0 1 1 0 0 0 0 0 0 0 0 0 0 0 0 0 0 0 0 0 0 0 0
9 9 8 6 4 2 1 0 0 1 2 3 3 3 3 3 2 1 0 0 0 0 0 0 0 0 0 0 0 0 0 0 0 0 0 0 0 0 0 0 0 0 0
5 6 5 4 2 2 1 0 0 1 2 2 3 3 3 3 3 1 0 0 0 0 0 0 0 0 0 0 0 0 0 0 0 0 0 0 0 0 0 0 0 0 0
3 4 4 2 1 1 1 0 1 2 2 1 2 3 3 3 2 1 1 1 1 0 0 0 0 0 0 0 0 0 0 0 0 0 0 0 0 0 0 0 0 0 0

GEFSMA_con_probscp_156.txt.gz
Probability
0 0 0 0 0 0 0 0 0 0 0 0 0 0 0 0 0 0 0 0 0 0 0 0 0 0 0 0 0 0 0 0 0 0 0 0 0 0 0 0 0 0 0
0 0 0 0 0 0 0 0 0 0 0 0 0 0 0 0 0 0 0 0 0 0 0 0 0 0 0 0 0 0 0 0 0 0 0 0 0 0 0 0 0 0 0
0 0 0 0 0 0 0 0 0 0 0 0 0 0 0 0 0 0 0 0 0 0 0 0 0 0 0 0 0 0 0 0 0 0 0 0 0 0 0 0 0 0 0
0 0 0 0 0 0 0 0 0 0 0 0 0 0 0 0 0 0 0 0 0 0 0 0 0 0 0 0 0 0 0 0 0 0 0 0 0 0 0 0 0 0 0
0 0 0 0 0 0 0 0 0 0 0 0 0 0 0 0 0 0 0 0 0 0 0 0 0 0 0 0 0 0 0 0 0 0 0 0 0 0 0 0 0 0 0
0 0 0 0 0 0 0 0 0 0 0 0 0 0 0 0 0 0 0 0 0 0 0 0 0 0 0 0 0 0 0 0 0 0 0 0 0 0 0 0 0 0 0
0 0 0 0 0 0 0 0 0 0 0 0 0 0 0 0 0 0 0 0 0 0 0 0 0 0 0 0 0 0 0 0 0 0 0 0 0 0 0 0 0 0 0
0 0 1 0 0 0 0 0 0 0 0 0 0 0 0 0 0 0 0 0 0 0 0 0 0 0 0 0 0 0 0 0 0 0 0 0 0 0 0 0 0 0 0
0 0 0 0 0 0 0 0 0 0 0 0 0 0 0 0 0 0 0 0 0 0 0 0 0 0 0 0 0 0 0 0 0 0 0 0 0 0 0 0 0 0 0
0 0 0 0 0 0 0 0 0 0 0 0 0 0 0 0 0 0 0 0 0 0 0 0 0 0 0 0 0 0 0 0 0 0 0 0 0 0 0 0 0 0 0
0 0 0 0 0 0 0 0 0 0 0 0 0 0 0 0 0 0 0 0 0 0 0 0 0 0 0 0 0 0 0 0 0 0 0 0 0 0 0 0 0 0 0
0 0 0 0 0 0 0 0 0 0 0 0 0 0 0 0 0 0 0 0 0 0 0 0 0 0 0 0 0 0 0 0 0 0 0 0 0 0 0 0 0 0 0
0 0 0 0 0 0 0 0 0 0 0 0 0 0 0 0 0 0 0 0 0 0 0 0 0 0 0 0 0 0 0 0 0 0 0 0 0 0 0 0 0 0 0
0 0 0 0 0 0 0 0 0 0 0 0 0 0 0 0 0 0 0 0 0 0 0 0 0 0 0 0 0 0 0 0 0 0 0 0 0 0 0 0 0 0 0
0 0 0 0 0 0 0 0 0 0 0 0 0 0 0 0 0 0 0 0 0 0 0 0 0 0 0 0 0 0 0 0 0 0 0 0 0 0 0 0 0 0 0
0 0 0 0 0 0 0 0 0 0 0 0 0 0 0 0 0 0 0 0 0 0 0 0 0 0 0 0 0 0 0 0 0 0 0 0 0 0 0 0 0 0 0
0 0 0 0 0 0 0 0 0 0 0 0 0 0 0 0 0 0 0 0 0 0 0 0 0 0 0 0 0 0 0 0 0 0 0 0 0 0 0 0 0 0 0
0 0 0 0 0 0 0 0 0 0 0 1 1 2 1 1 1 0 0 0 0 0 0 0 0 0 0 0 0 0 0 0 0 0 0 0 0 0 0 0 0 0 0
0 0 0 0 0 0 0 0 0 0 0 1 2 3 3 2 2 1 1 0 0 0 0 0 0 0 0 0 0 0 0 0 0 0 0 0 0 0 0 0 0 0 0
0 1 1 1 2 2 1 2 2 1 1 2 3 3 3 3 3 2 2 1 0 0 0 0 0 0 0 0 0 0 0 0 0 0 0 0 0 0 0 0 0 0 0
2 3 4 4 5 5 4 4 4 3 3 3 4 4 3 3 3 2 1 1 0 0 0 0 0 0 0 0 0 0 0 0 0 0 0 0 0 0 0 0 0 0 0
5 5 6 6 6 6 5 3 3 3 3 5 5 5 4 3 2 1 1 0 0 0 0 0 0 0 0 0 0 0 0 0 0 0 0 0 0 0 0 0 0 0 0
6 6 6 6 6 5 4 2 1 1 2 4 5 4 3 3 3 2 1 1 1 0 0 1 1 0 0 0 0 0 0 0 0 0 0 0 0 0 0 0 0 0 0
5 4 3 3 3 3 2 1 0 0 1 2 3 3 3 3 3 2 2 2 2 1 0 0 1 1 0 0 0 0 0 0 0 0 0 0 0 0 0 0 0 0 0
3 2 1 1 1 1 1 0 0 0 0 1 2 2 2 2 2 1 1 3 3 2 1 1 0 0 0 0 0 0 0 0 0 0 0 0 0 0 0 0 0 0 0
1 1 0 0 0 0 0 0 0 0 0 0 1 1 1 1 1 0 1 2 3 3 2 2 1 0 0 0 0 0 0 0 0 0 0 0 0 0 0 0 0 0 0

GEFSMA_con_probscp_162.txt.gz
Probability
0 0 0 0 0 0 0 0 0 0 0 0 0 0 0 0 0 0 0 0 0 0 0 0 0 0 0 0 0 0 0 0 0 0 0 0 0 0 0 0 0 0 0
0 0 0 0 0 0 0 0 0 0 0 0 0 0 0 0 0 0 0 0 0 0 0 0 0 0 0 0 0 0 0 0 0 0 0 0 0 0 0 0 0 0 0
0 0 0 0 0 0 0 0 0 0 0 0 0 0 0 0 0 0 0 0 0 0 0 0 0 0 0 0 0 0 0 0 0 0 0 0 0 0 0 0 0 0 0
0 0 0 0 0 0 0 0 0 0 0 0 0 0 0 0 0 0 0 0 0 0 0 0 0 0 0 0 0 0 0 0 0 0 0 0 0 0 0 0 0 0 0
0 0 0 0 0 0 0 0 0 0 0 0 0 0 0 0 0 0 0 0 0 0 0 0 0 0 0 0 0 0 0 0 0 0 0 0 0 0 0 0 0 0 0
0 0 0 0 0 0 0 0 0 0 0 0 0 0 0 0 0 0 0 0 0 0 0 0 0 1 1 0 0 0 0 0 0 0 0 0 0 0 0 0 0 0 0
1 0 0 0 0 0 0 0 0 0 0 0 0 0 0 0 0 0 0 0 0 0 0 0 1 2 2 1 1 0 0 0 0 0 0 0 0 0 0 0 0 0 0
2 1 0 0 0 0 0 0 0 0 0 0 0 0 0 0 0 0 0 0 0 1 1 1 1 2 2 1 1 0 0 0 0 0 0 0 0 0 0 0 0 0 0
2 1 0 0 0 0 0 0 0 0 1 1 1 1 0 0 0 0 0 0 0 1 2 2 2 2 2 1 1 0 0 0 0 0 0 0 0 0 0 0 0 0 0
1 1 1 1 1 1 0 0 0 0 1 2 3 2 2 1 0 0 0 0 0 1 1 1 1 2 2 2 2 1 0 0 0 0 0 0 0 0 0 0 0 0 0
2 1 2 2 2 2 1 0 0 0 1 2 3 3 3 2 1 0 0 0 0 0 0 0 0 1 2 2 1 1 0 0 0 0 0 0 0 0 0 0 0 0 0
3 2 1 2 3 3 1 1 1 0 0 1 2 3 4 3 2 1 0 0 0 0 0 0 0 0 0 1 1 0 0 0 0 0 0 0 0 0 0 0 0 0 0
3 2 0 1 3 3 2 3 2 1 1 1 1 2 4 4 3 3 2 2 1 0 0 0 1 1 1 1 2 1 0 0 0 0 0 0 0 0 0 0 0 0 0
3 1 0 0 1 2 3 4 2 1 1 1 1 2 4 5 4 5 6 6 4 2 1 2 3 3 3 3 3 2 2 1 0 0 0 0 0 0 0 0 0 0 0
4 3 1 0 1 2 4 4 3 2 2 2 1 2 4 5 6 8 9 9 7 3 2 3 5 6 5 4 3 3 3 2 0 0 0 0 0 0 0 0 0 0 0
4 4 2 1 1 3 5 5 4 3 3 3 3 3 5 7 9 11 12 11 9 6 4 4 6 7 6 4 3 3 4 3 1 0 0 0 0 0 0 0 0 0 0
2 2 2 2 1 1 4 5 5 3 3 4 5 6 9 13 15 16 14 14 13 11 8 5 6 9 10 9 6 5 4 3 2 1 0 0 0 0 0 0 0 0 0
1 1 2 2 1 1 3 5 4 3 4 6 8 10 12 14 17 17 16 14 14 14 11 8 8 11 13 13 12 10 6 5 4 1 0 0 0 0 0 0 0 0 0
1 2 3 3 3 2 3 5 6 6 8 9 11 11 11 11 12 14 15 14 13 12 11 10 10 11 11 12 13 11 8 8 5 2 1 0 0 0 0 0 0 0 0
1 2 2 3 3 5 6 8 9 10 11 11 11 10 9 7 7 8 11 12 11 10 9 9 9 9 8 9 11 10 9 10 8 5 4 2 1 1 1 0 0 0 0
1 1 2 2 4 7 9 10 10 10 11 11 10 8 7 5 5 5 6 8 8 8 7 7 7 7 6 7 9 8 8 8 9 7 6 5 3 3 3 2 0 0 0
3 4 4 4 6 7 7 7 7 8 9 9 9 7 5 4 4 4 4 3 4 4 5 5 6 5 4 4 5 5 6 6 7 7 7 7 6 5 5 2 0 0 0
7 8 8 8 7 5 4 3 4 5 7 8 8 6 5 4 4 5 4 3 2 2 3 4 4 4 3 3 3 3 4 4 5 6 7 7 7 6 5 2 0 0 0
9 9 9 8 6 4 2 1 1 4 6 7 7 6 5 4 4 4 4 4 3 3 2 2 3 3 3 3 3 3 3 3 4 5 6 6 6 5 4 2 1 0 0
9 8 8 7 6 3 1 0 0 2 4 5 5 4 4 3 2 2 2 3 3 3 2 1 1 2 2 2 2 3 3 3 3 3 4 4 4 4 4 3 2 1 0
8 8 7 6 6 3 1 0 0 1 2 2 3 4 3 2 1 1 2 2 2 1 1 0 0 1 1 1 1 2 3 3 3 3 3 3 4 4 4 3 3 2 1

GEFSMA_con_probscp_168.txt.gz
Probability
0 0 0 0 0 1 1 1 0 0 0 0 0 0 0 0 0 0 0 0 0 0 0 0 0 0 0 0 0 0 0 0 0 0 0 0 0 0 0 0 0 0 0
1 1 0 0 0 0 0 0 0 0 0 0 0 0 0 0 0 0 0 0 0 0 0 0 0 0 0 0 0 0 0 0 0 0 0 0 0 0 0 0 0 0 0
3 2 1 0 0 0 0 0 0 0 0 0 0 0 0 0 0 0 0 0 0 0 0 0 1 1 0 0 0 0 0 0 0 0 0 0 0 0 0 0 0 0 0
4 3 1 0 0 0 0 0 0 0 0 0 0 0 0 0 0 0 0 0 0 0 0 0 1 1 0 0 0 0 0 0 0 0 0 0 0 0 0 0 0 0 0
3 2 1 0 1 1 1 0 1 1 0 0 0 0 1 0 0 0 0 0 0 1 1 0 1 1 0 0 1 1 1 1 0 0 0 0 0 0 0 0 0 0 0
5 3 1 1 2 3 2 1 2 2 1 0 0 0 0 0 0 0 0 0 1 2 2 2 1 1 1 1 2 2 2 2 1 0 0 0 0 0 0 0 0 0 0
8 5 2 3 5 3 2 2 3 3 1 0 0 0 0 0 1 1 1 1 1 2 3 4 5 4 3 2 3 3 3 2 1 0 0 0 0 0 0 0 0 0 0
11 7 4 4 5 3 2 4 6 4 2 2 1 0 0 0 1 2 2 2 2 2 2 4 8 9 7 4 4 3 3 2 1 1 1 0 0 0 0 0 0 0 0
12 8 5 4 3 2 2 4 6 5 4 3 2 0 0 0 2 3 3 3 4 4 2 3 8 12 11 7 6 4 3 2 2 2 2 1 0 0 0 0 0 0 0
13 10 7 6 4 3 3 3 4 5 4 3 2 0 0 0 1 2 3 3 4 5 3 3 6 10 11 9 8 7 4 3 2 3 3 2 1 1 0 0 0 0 0
12 12 10 9 7 5 4 4 5 6 5 3 1 0 0 0 1 1 1 2 3 3 3 3 4 7 8 9 9 8 5 3 2 2 3 3 3 2 1 1 0 0 0
11 10 10 9 8 7 6 7 8 7 5 3 2 2 1 1 1 0 0 1 1 1 2 3 5 6 6 7 7 6 4 2 1 1 2 2 3 3 3 2 1 1 0
7 7 8 9 8 7 7 8 8 8 6 5 5 6 5 4 3 1 0 0 0 0 1 4 5 6 5 5 5 4 3 2 0 0 1 1 1 2 2 2 2 1 1
4 5 7 9 9 6 6 6 7 6 7 9 10 11 10 6 3 2 1 0 0 0 1 3 5 5 6 7 5 2 2 1 0 0 0 0 0 1 1 1 1 1 0
5 6 8 9 8 7 6 5 5 5 8 13 15 15 12 7 5 4 3 3 2 1 0 2 4 5 7 7 4 3 4 2 0 0 0 0 0 0 0 0 0 0 0
8 8 8 8 7 7 7 7 6 5 8 12 15 16 16 13 10 9 8 7 6 3 1 1 3 6 7 5 3 5 8 6 2 0 0 0 0 0 0 0 0 0 0
8 8 7 6 6 7 9 9 8 7 7 10 12 16 20 20 17 16 13 9 8 6 4 2 3 7 9 7 5 7 9 8 5 2 0 0 0 0 0 0 0 0 0
8 7 6 6 6 7 9 10 10 10 10 10 11 15 20 22 21 19 14 9 8 8 6 3 4 6 8 8 8 8 7 6 5 3 1 0 0 0 0 0 0 0 0
13 10 8 8 8 9 10 10 11 12 13 12 12 13 17 19 19 16 12 8 8 8 7 4 4 4 6 6 6 5 4 3 4 3 1 1 0 0 0 0 0 0 0
16 14 12 11 11 11 9 8 9 11 12 12 12 12 12 13 13 11 8 7 7 7 6 5 4 4 5 5 4 3 2 2 3 3 3 2 1 0 0 0 0 0 0
17 15 14 14 12 9 5 4 6 8 9 10 11 10 9 9 8 7 6 5 5 5 6 6 6 6 6 7 6 5 3 1 1 3 3 3 2 1 0 0 0 0 0
18 17 15 14 11 6 3 2 3 5 6 7 9 9 9 7 6 5 5 4 3 3 4 6 6 6 7 7 7 5 3 2 2 3 3 3 3 2 1 1 0 0 0
20 19 16 12 9 5 2 2 2 3 5 6 8 9 8 6 4 4 4 3 3 2 3 4 5 6 5 5 4 3 2 2 2 3 3 3 3 3 2 1 0 0 0
20 19 15 10 8 5 2 1 1 1 3 5 7 8 7 5 2 2 3 2 2 2 2 2 3 3 3 3 2 2 2 1 1 2 2 2 2 2 2 1 1 0 0
16 14 11 9 8 5 2 0 0 0 1 4 5 5 5 3 1 1 2 3 2 1 1 1 1 1 1 1 1 1 1 1 0 1 1 1 1 2 2 2 2 1 0
11 9 8 8 7 5 2 1 0 0 1 2 3 3 2 2 1 0 2 3 3 2 1 0 0 0 0 0 0 0 0 0 0 0 0 0 1 2 2 2 2 1 0

GEFSMA_con_probscp_174.txt.gz
Probability
0 0 0 0 0 0 0 0 0 0 0 0 0 0 0 0 0 0 0 0 0 0 0 0 0 0 0 0 0 0 0 0 0 0 0 0 0 0 0 0 0 0 0
0 0 0 0 0 0 0 0 0 0 0 0 0 0 0 0 0 0 0 0 0 0 0 0 0 0 0 0 0 0 0 0 0 0 0 0 0 0 0 0 0 0 0
0 0 0 0 0 0 0 0 0 0 0 0 0 0 0 0 0 0 0 0 0 0 0 0 0 0 0 1 1 0 0 0 0 0 0 0 0 0 0 0 0 0 0
0 0 0 0 0 0 0 0 0 0 0 0 0 0 0 0 0 0 0 0 0 0 0 0 0 0 0 1 1 0 0 0 0 0 0 0 0 0 0 0 0 0 0
0 0 0 0 0 0 0 0 0 0 0 0 0 0 0 0 0 0 0 0 0 0 0 0 0 0 1 1 1 0 0 0 0 0 0 0 0 0 0 0 0 0 0
0 0 0 0 0 0 0 0 0 0 0 0 0 0 0 0 0 0 0 0 0 0 0 0 0 0 1 2 3 3 2 2 1 1 0 0 0 0 0 0 0 0 0
0 0 0 0 0 0 0 0 0 0 0 0 0 0 0 0 0 0 0 0 0 0 0 0 0 0 1 2 4 6 6 5 4 3 2 1 0 0 0 0 0 0 0
1 0 0 0 0 0 0 0 0 0 0 0 0 0 0 0 0 0 0 0 0 0 1 1 1 1 0 1 2 6 8 7 6 6 5 3 1 0 0 0 0 0 0
2 1 0 0 0 0 0 0 0 0 0 0 0 0 0 0 0 0 0 0 0 0 1 2 2 1 0 0 0 3 6 7 7 7 7 5 2 1 0 0 0 0 0
2 1 0 0 0 0 0 0 0 0 0 0 0 0 0 0 0 0 0 0 0 0 0 1 1 1 0 0 0 1 2 4 5 6 7 6 4 3 1 0 0 0 0
1 0 0 0 0 0 0 0 0 0 0 0 0 0 0 0 0 0 0 0 0 0 0 0 0 0 0 0 0 0 1 1 2 4 5 6 6 4 3 1 0 0 0
0 0 0 0 0 0 0 0 0 0 0 0 0 0 0 0 0 0 0 0 0 0 0 0 0 0 0 0 0 1 1 0 0 1 2 4 5 5 4 3 1 1 0
0 0 1 1 0 0 0 0 0 0 0 0 0 0 0 0 0 0 0 0 0 0 0 0 0 0 0 0 0 1 1 0 0 0 0 1 2 3 4 3 2 1 1
1 1 2 2 1 1 0 0 0 0 0 0 0 0 0 0 0 0 0 0 0 0 0 0 0 0 0 0 0 0 0 0 0 0 0 0 0 1 2 2 2 1 0
2 1 2 3 2 1 1 1 1 1 0 0 0 0 0 0 0 0 0 0 0 0 0 0 0 0 0 0 0 0 0 0 0 0 0 0 0 0 1 1 1 0 0
2 1 1 2 2 1 1 2 2 1 0 0 0 0 0 0 0 0 0 0 0 0 0 0 0 0 0 0 0 0 0 0 0 0 0 0 0 0 0 0 0 0 0
1 0 1 2 3 2 2 2 2 1 0 1 1 0 0 0 0 0 0 0 1 1 0 0 0 0 0 0 0 0 0 0 0 0 0 0 0 0 0 0 0 0 0
0 1 2 3 3 2 1 1 1 0 0 1 1 0 0 0 0 0 0 1 2 2 1 1 0 0 0 1 1 1 0 0 0 0 0 0 0 0 0 0 0 0 0
1 1 2 2 2 1 1 0 0 0 0 1 1 0 0 0 0 0 0 1 2 2 2 2 1 0 0 1 2 2 1 0 0 0 0 0 0 0 0 0 0 0 0
2 3 3 2 3 2 1 1 1 0 0 0 0 0 0 0 0 0 0 0 1 1 2 2 1 0 0 1 2 2 1 0 0 0 0 0 0 0 0 0 0 0 0
3 3 3 3 3 2 1 0 0 0 0 0 0 0 0 0 0 0 0 0 0 0 1 1 1 0 0 0 1 1 1 0 0 0 0 0 0 0 0 0 0 0 0
4 4 3 2 1 1 0 0 0 0 0 0 0 0 0 0 0 0 0 0 0 0 0 0 0 0 0 0 0 0 0 0 0 0 0 0 0 0 0 0 0 0 0
4 4 2 1 0 0 0 0 0 0 0 0 0 0 0 0 0 0 0 0 0 0 0 0 0 0 0 0 0 0 0 0 0 0 0 0 0 0 0 0 0 0 0
2 2 1 0 0 0 0 0 0 0 0 0 0 0 0 0 0 0 0 0 0 0 0 0 0 0 0 0 0 0 0 0 0 0 0 0 0 0 0 0 0 0 0
0 0 0 0 0 0 0 0 0 0 0 0 0 0 0 0 0 0 0 0 0 0 0 0 0 0 0 0 0 0 0 0 0 0 0 0 0 0 0 0 0 0 0
0 0 0 0 0 0 0 0 0 0 0 0 0 0 0 0 0 0 0 0 0 0 0 0 0 0 0 0 0 0 0 0 0 0 0 0 0 0 0 0 0 0 0

GEFSMA_con_probscp_180.txt.gz
Probability
3 3 3 3 2 1 2 3 3 3 2 1 0 0 1 2 3 3 3 2 3 3 3 3 3 3 3 3 3 3 3 3 3 3 3 3 3 3 3 3 3 3 3
3 3 3 3 3 2 3 3 3 3 3 2 1 1 2 3 3 3 3 3 3 3 3 3 3 3 3 3 3 3 3 3 3 3 3 3 3 3 3 3 3 3 3
3 3 3 3 3 3 3 3 3 3 3 3 3 3 3 3 3 3 3 3 3 3 3 3 3 3 3 3 3 3 3 3 3 3 3 3 3 3 3 3 3 3 3
3 3 3 3 3 3 3 3 3 3 3 3 3 3 3 3 3 3 3 3 3 3 3 3 3 3 3 3 3 3 3 3 3 3 3 3 3 3 3 3 3 3 3
1 2 3 3 3 3 3 3 3 3 3 3 3 3 3 3 3 3 3 3 3 3 3 3 3 3 3 3 3 3 3 3 3 3 3 3 3 3 3 3 3 3 3
0 1 1 2 2 2 3 3 3 2 3 3 3 3 3 2 2 2 3 3 3 3 3 3 3 3 3 3 3 3 3 3 3 4 3 3 3 3 3 3 3 3 3
0 0 0 1 1 1 1 2 2 3 3 3 3 2 1 1 1 1 1 2 2 2 2 3 3 3 3 3 2 3 3 3 4 4 4 3 3 3 3 3 3 3 3
0 0 0 0 0 0 0 1 1 2 2 2 2 1 0 0 0 0 0 1 1 1 1 1 2 3 3 1 1 2 3 3 3 4 3 3 3 3 3 4 3 3 3
1 1 0 0 0 0 0 0 0 1 1 1 1 0 0 0 0 0 0 0 0 0 0 0 1 2 2 1 1 2 3 3 3 3 4 4 4 4 4 4 4 3 3
2 2 1 1 1 0 0 0 0 0 0 0 0 0 0 0 0 0 0 0 0 0 0 0 0 1 1 1 1 1 2 2 2 3 4 4 4 5 5 5 4 3 3
3 3 3 2 2 1 1 1 0 0 0 0 0 0 0 0 0 0 0 0 0 0 0 0 0 0 0 0 0 0 1 1 1 1 3 3 4 6 8 7 4 3 3
3 3 3 3 3 3 2 2 1 0 0 0 0 0 0 0 0 0 0 0 0 0 0 0 0 0 0 0 0 0 0 0 0 0 1 1 3 5 8 7 6 5 5
3 3 3 3 3 3 3 3 1 0 0 0 0 0 0 0 0 0 0 0 0 0 0 0 0 0 0 0 0 0 0 0 0 0 0 0 1 3 4 5 5 6 6
3 3 3 3 3 3 3 2 1 0 0 0 0 0 0 0 0 0 0 0 0 0 0 0 0 0 0 0 0 0 0 0 0 0 0 0 0 1 1 1 2 4 5
4 3 3 2 1 2 2 2 1 0 0 0 0 0 0 0 0 0 0 0 0 0 0 0 0 0 0 0 0 0 0 0 0 0 0 0 0 0 0 0 0 1 1
4 4 2 1 1 2 3 2 1 1 0 0 0 0 0 0 0 0 0 0 0 0 0 0 0 0 0 0 0 0 0 0 0 0 0 0 0 0 0 0 0 0 0
5 4 2 2 2 3 3 3 3 2 1 0 0 0 0 0 0 0 0 0 0 0 0 0 0 0 0 0 0 0 0 0 0 0 0 0 0 0 0 0 0 0 0
4 3 3 3 3 3 3 3 3 2 1 0 0 0 0 0 0 0 0 0 0 0 0 0 0 0 0 0 0 0 0 0 0 0 0 0 0 0 0 0 0 0 0
4 4 4 3 2 3 3 3 2 1 0 0 0 0 0 0 0 0 0 0 0 0 0 0 0 0 0 0 0 0 0 0 0 0 0 0 0 0 0 0 0 0 0
5 5 5 3 2 3 3 3 2 1 1 0 0 0 0 0 0 0 0 0 0 0 0 0 0 0 0 0 0 0 0 0 0 0 0 0 0 0 0 0 0 0 0
6 6 5 3 2 2 2 2 2 2 1 0 0 0 0 0 0 0 0 0 0 0 0 0 0 0 0 0 0 0 0 0 0 0 0 0 0 0 0 0 0 0 0
6 5 4 3 1 1 1 1 2 2 1 0 0 0 0 0 0 0 0 0 0 0 0 0 0 0 0 0 0 0 0 0 0 0 0 0 0 0 0 0 0 0 0
4 3 2 2 1 0 0 0 1 1 0 0 0 0 0 0 0 0 0 0 0 0 0 0 0 0 0 0 0 0 0 0 0 0 0 0 0 0 0 0 0 0 0
2 1 1 1 0 0 0 0 0 0 0 0 0 0 0 0 0 0 0 0 0 0 0 0 0 0 0 0 0 0 0 0 0 0 0 0 0 0 0 0 0 0 0
1 0 0 0 0 0 0 0 0 0 0 0 0 0 0 0 0 0 0 0 0 0 0 0 0 0 0 0 0 0 0 0 0 0 0 0 0 0 0 0 0 0 0
0 0 0 0 0 0 0 0 0 0 0 0 0 0 0 0 0 0 0 0 0 0 0 0 0 0 0 0 0 0 0 0 0 0 0 0 0 0 0 0 0 0 0

GEFSMA_con_probscp_186.txt.gz
Probability
0 0 0 0 0 0 0 0 0 0 0 0 0 0 0 0 0 0 0 0 0 0 0 0 0 0 0 0 0 0 0 0 0 0 0 0 0 0 0 0 0 0 0
0 0 0 0 0 0 0 0 0 0 0 0 0 0 0 0 0 0 0 0 0 0 0 0 0 0 0 0 0 0 0 0 0 0 0 0 0 0 0 0 0 0 0
0 0 0 0 0 0 0 0 0 0 0 0 0 0 0 0 0 0 0 0 0 0 0 0 0 0 0 0 0 0 0 0 0 0 0 0 0 0 0 0 0 0 0
0 0 0 0 0 0 0 0 0 0 0 0 0 0 0 0 0 0 0 0 0 0 0 0 0 0 0 0 0 0 0 0 0 0 0 0 0 0 0 0 0 0 0
0 0 0 0 0 0 0 0 0 0 0 0 0 0 0 0 0 0 0 0 0 0 0 0 0 0 0 0 0 0 0 0 0 0 0 0 0 0 0 0 0 0 0
0 0 1 1 1 0 0 0 0 0 0 0 0 0 0 0 0 0 0 0 0 0 0 0 0 0 0 0 0 0 1 1 0 0 0 0 0 0 0 0 0 0 0
1 1 1 2 2 1 0 0 0 0 0 0 0 0 0 0 0 0 0 0 0 0 0 0 0 0 0 1 1 1 2 1 0 0 0 0 0 0 0 0 0 0 0
1 1 1 2 3 2 1 1 0 0 0 0 0 1 1 0 0 0 0 0 0 0 0 0 0 0 1 3 3 1 1 1 0 0 0 0 1 1 1 0 0 0 0
2 1 1 1 2 2 2 1 1 1 1 1 1 2 2 2 1 1 0 0 0 0 0 0 0 0 2 4 3 2 1 0 0 1 1 0 1 2 1 0 0 1 1
3 1 0 0 1 1 1 1 2 3 4 3 3 3 3 3 2 1 0 0 0 0 0 0 0 0 2 3 2 1 0 0 0 1 1 1 1 1 1 1 2 2 2
3 1 0 1 2 3 2 2 4 5 6 5 5 5 4 3 2 1 0 0 0 0 0 0 0 1 2 2 1 0 0 0 0 1 1 1 1 1 2 3 4 4 3
2 1 0 2 5 5 3 3 4 6 6 6 6 6 5 4 3 1 0 0 1 1 0 0 0 1 2 2 1 0 0 0 0 0 1 1 0 1 3 4 5 4 3
2 2 2 4 6 6 4 3 4 5 6 6 6 6 6 5 4 3 2 2 1 1 0 0 0 1 2 2 3 1 0 0 0 0 0 0 0 1 2 3 3 2 2
4 4 5 6 6 6 4 3 3 4 4 5 5 6 7 6 5 5 5 4 2 1 0 2 3 4 4 4 3 2 1 0 0 0 0 0 0 1 1 1 1 0 0
6 6 6 6 6 6 5 4 3 3 3 4 4 6 7 6 5 5 6 7 5 2 1 4 8 9 7 4 2 2 2 1 0 0 0 0 0 0 0 0 0 0 0
7 6 6 6 6 6 6 5 4 3 3 3 4 5 6 5 5 5 8 9 8 6 4 6 9 9 6 3 1 1 1 1 0 0 0 0 0 0 0 0 0 0 0
8 6 6 6 6 7 7 7 6 5 4 4 5 6 7 6 6 8 10 11 11 9 7 5 7 6 3 1 0 1 1 1 1 1 0 0 0 0 0 0 0 0 0
9 7 7 8 9 9 10 10 9 7 5 5 7 7 8 8 8 9 10 10 9 8 6 5 4 5 3 1 2 3 2 1 1 1 0 0 0 0 0 0 0 0 0
10 9 8 9 11 12 12 12 10 9 7 6 7 7 7 7 7 8 7 5 4 3 4 3 3 4 4 3 4 4 3 2 2 1 0 0 0 0 0 0 0 0 0
11 10 8 8 8 9 10 10 10 9 7 6 6 6 6 5 5 5 3 1 0 0 1 2 3 3 3 4 5 4 3 3 3 1 1 0 0 0 0 0 0 0 0
12 11 8 6 6 6 5 5 6 6 6 6 6 6 5 3 2 2 1 0 0 0 0 1 1 1 1 3 4 4 3 2 2 2 1 0 0 1 0 0 0 0 0
13 12 9 8 7 4 2 2 2 3 5 5 4 3 2 1 0 0 0 0 0 0 0 0 0 0 0 1 2 3 3 2 1 1 1 0 0 0 0 0 0 0 0
12 11 11 10 8 4 1 0 0 1 3 3 1 1 1 0 0 0 0 0 0 0 0 0 0 0 0 1 2 3 3 2 2 2 1 0 0 0 0 0 0 0 0
13 12 10 9 6 3 1 0 0 0 1 1 0 0 0 0 0 0 0 0 0 0 0 0 0 0 0 1 2 2 2 1 1 1 1 0 0 0 0 0 0 0 0
14 11 8 7 4 1 0 0 0 0 0 0 0 0 0 0 0 0 0 0 1 2 1 0 0 0 0 0 1 1 1 0 0 0 0 0 0 0 0 0 0 0 0
14 11 7 5 3 1 0 0 0 0 0 0 0 0 0 0 0 0 0 1 2 3 2 1 0 0 0 0 0 0 0 0 0 1 1 1 0 0 0 0 0 0 0

GEFSMA_con_probscp_192.txt.gz
Probability
0 0 0 0 0 0 0 0 0 0 0 0 0 0 0 0 0 0 0 0 0 0 0 0 0 0 0 0 0 0 0 0 0 0 0 0 0 0 0 0 0 0 0
0 0 0 0 0 0 0 0 0 0 0 0 0 0 0 0 0 0 0 0 0 0 1 1 1 1 0 0 0 1 1 0 0 0 0 0 0 0 0 0 0 0 0
0 0 0 0 0 1 1 1 1 1 1 1 1 1 0 0 0 0 1 1 1 1 2 2 2 2 1 0 0 1 1 0 0 0 0 0 0 0 0 0 0 0 0
1 0 0 0 1 2 2 2 2 2 2 2 2 1 1 0 0 1 2 4 3 2 3 3 4 3 1 1 1 1 1 0 0 0 0 0 0 0 0 0 0 0 0
2 1 1 1 2 2 3 3 3 2 2 1 1 1 1 0 0 1 3 4 4 4 4 4 4 3 2 2 2 2 2 1 0 0 0 0 0 0 0 0 0 0 0
3 3 2 2 2 1 1 2 3 3 3 2 1 1 1 0 1 2 3 3 4 5 5 6 7 5 3 1 1 2 2 1 0 0 0 1 1 0 0 1 1 0 0
4 3 3 4 3 1 1 2 2 3 3 3 3 2 1 0 1 1 2 2 2 2 5 9 11 8 4 1 0 1 1 0 0 0 0 1 1 0 1 2 2 1 0
6 4 5 6 5 3 2 2 3 3 2 2 2 2 1 0 0 0 1 1 2 1 2 7 12 11 7 3 1 0 0 0 1 2 2 2 1 0 1 2 3 2 1
8 7 7 10 9 5 2 2 3 4 2 1 2 1 1 1 0 0 0 2 2 1 1 4 8 10 8 6 4 3 2 1 3 5 5 4 2 1 1 1 2 2 1
11 11 11 13 12 7 4 2 2 4 3 3 3 3 2 2 1 1 0 1 1 1 2 2 4 7 7 6 7 8 6 4 4 6 6 5 4 4 3 2 2 2 2
13 14 13 13 13 11 8 5 3 3 3 4 4 4 3 3 3 2 1 1 0 1 3 4 5 6 6 6 6 7 7 5 4 4 4 4 3 4 4 3 2 2 3
16 15 13 12 12 13 12 10 7 5 4 4 3 3 3 4 4 3 2 1 1 1 3 6 9 9 9 6 5 4 4 4 3 2 2 1 1 2 2 2 2 2 2
16 15 14 12 11 12 12 12 11 8 5 4 3 2 3 5 5 4 2 1 1 1 4 8 11 11 9 7 4 3 3 2 1 1 0 0 0 0 0 1 1 1 2
13 15 15 13 11 11 12 12 11 9 6 4 3 3 4 6 6 6 4 3 2 1 3 7 9 8 6 4 3 3 3 2 1 0 0 0 0 0 0 0 1 1 1
12 15 15 14 12 12 12 11 10 9 7 6 6 6 6 8 7 7 7 7 5 2 2 4 5 4 3 2 2 4 4 2 1 0 0 0 0 0 0 0 0 0 0
15 16 16 15 13 13 13 14 13 11 9 8 8 8 9 9 8 7 8 8 7 4 2 3 3 2 1 0 1 2 3 2 1 0 0 0 0 0 0 0 0 0 0
19 19 18 16 13 13 15 17 15 13 10 9 8 9 9 8 7 7 7 6 5 4 2 2 2 1 0 0 1 1 1 1 1 0 0 0 0 0 0 0 0 0 0
20 18 18 17 15 14 16 16 14 12 11 9 9 8 7 7 6 6 6 5 4 3 2 2 1 0 0 0 1 1 1 1 1 0 0 0 0 0 0 0 0 0 0
18 17 18 19 19 16 14 13 11 10 10 9 8 6 6 6 6 5 4 4 3 3 3 1 0 0 0 0 1 1 0 0 0 0 0 0 0 0 0 0 0 0 0
18 19 20 20 18 14 11 9 9 10 9 8 6 4 4 4 4 3 3 3 3 3 2 1 0 0 0 0 0 0 0 0 0 0 0 0 0 0 0 0 0 0 0
20 21 21 19 14 9 6 5 7 9 9 7 6 4 3 3 2 1 1 1 2 2 1 0 0 0 0 0 0 0 0 0 0 0 0 0 0 0 0 0 0 0 0
23 22 20 16 11 5 2 2 3 6 6 6 5 5 4 3 1 0 0 0 1 1 0 0 0 0 0 0 0 0 0 0 0 0 0 0 0 0 0 0 0 0 0
20 19 17 14 9 4 2 0 1 2 3 4 4 4 3 2 1 0 0 0 0 0 0 0 0 0 0 0 0 0 0 0 1 1 1 1 0 0 0 0 0 0 0
17 17 15 12 8 4 1 0 0 1 3 4 4 2 1 1 0 0 0 0 0 0 0 0 0 0 0 0 0 0 0 0 1 2 3 2 1 0 0 0 0 0 0
18 17 15 12 9 5 1 0 1 2 4 5 3 1 0 0 0 0 0 0 0 0 0 0 0 0 0 0 0 0 0 0 1 2 2 2 1 0 0 0 0 0 0
19 17 15 13 10 6 2 0 1 2 4 4 2 0 0 0 0 0 0 0 0 0 0 0 0 0 0 0 0 0 0 0 0 1 1 1 0 0 0 0 0 0 0

GEFSMA_con_probscp_198.txt.gz
Probability
3 3 3 2 2 3 3 3 3 2 1 0 0 0 0 1 2 3 3 4 4 4 4 4 4 3 2 1 1 1 2 3 3 3 2 1 1 1 0 0 0 0 0
3 3 3 2 2 3 3 3 3 1 0 0 0 0 0 0 1 3 3 4 4 5 5 5 5 3 1 1 2 2 3 3 3 3 3 2 2 2 1 1 1 1 1
3 3 3 2 2 3 2 2 2 1 0 0 0 0 0 0 1 2 3 3 4 4 5 6 5 3 1 1 3 3 3 3 3 3 3 3 3 3 3 2 2 2 2
3 3 2 2 2 1 1 1 1 0 0 0 0 0 0 0 1 3 3 3 3 3 4 5 6 5 4 3 4 3 3 4 4 4 4 3 3 3 3 3 3 3 3
3 2 1 1 1 0 0 0 0 0 0 0 0 0 0 0 2 3 3 3 2 3 3 4 5 6 5 5 5 4 4 4 5 5 5 4 3 3 3 3 3 3 3
3 2 0 0 0 0 0 0 0 0 0 0 0 0 0 0 1 2 2 1 1 1 2 3 3 4 5 5 5 4 4 4 4 5 5 5 4 3 3 3 4 4 4
3 2 1 0 0 0 0 0 0 0 1 1 1 0 0 0 0 1 1 0 0 0 1 1 2 2 3 4 4 5 5 5 5 5 5 4 4 3 3 4 4 5 5
3 3 3 1 1 1 0 0 0 0 1 2 2 1 0 0 0 0 0 0 0 0 0 0 0 0 1 1 2 3 4 5 5 5 6 5 4 3 3 3 4 4 4
4 4 5 3 2 1 1 1 0 1 1 2 2 1 0 0 0 0 0 0 0 0 0 0 0 0 0 0 0 1 1 3 3 4 6 6 5 4 4 3 3 2 2
5 5 5 4 3 2 3 3 2 2 2 2 2 1 1 0 0 0 0 0 0 0 0 0 0 0 0 0 0 0 0 1 1 2 3 3 3 3 3 2 1 1 1
6 5 5 5 5 5 6 6 5 5 5 4 3 2 2 1 0 0 0 0 0 0 0 0 0 0 0 0 0 0 0 0 0 0 1 1 1 1 1 1 0 0 0
6 6 6 7 8 8 8 7 7 7 6 4 3 3 3 2 1 0 0 0 0 0 0 0 0 0 0 0 0 0 0 0 0 0 0 0 0 0 0 0 1 1 1
6 7 7 8 9 9 8 8 8 7 5 4 3 3 2 2 2 1 0 0 0 0 0 0 0 0 0 1 1 1 0 0 0 0 0 0 0 0 0 1 2 2 2
7 8 8 8 9 9 8 8 8 7 5 2 2 1 1 1 2 2 1 1 1 0 0 0 0 0 0 1 1 1 0 0 0 0 0 0 0 0 0 1 2 2 2
8 9 9 9 9 8 7 7 7 6 4 2 1 1 1 1 2 3 3 3 3 1 1 1 1 0 0 1 1 0 0 0 0 0 0 0 0 0 0 1 1 0 1
10 10 10 10 9 6 5 5 6 6 5 3 2 2 2 2 2 2 3 4 4 3 2 2 1 0 0 0 0 0 0 0 0 0 0 0 0 0 0 0 0 0 0
13 13 12 10 7 6 5 6 6 6 5 4 4 3 3 3 2 2 3 3 3 3 2 1 0 0 0 0 0 0 0 0 0 0 0 0 0 0 0 0 0 0 0
13 13 11 9 8 7 8 8 8 7 5 4 5 5 4 3 2 3 3 3 3 1 1 0 0 0 0 0 0 0 0 0 0 0 0 0 0 0 0 0 0 0 0
12 13 11 10 9 9 9 10 9 7 5 4 5 5 4 3 3 3 3 3 2 1 0 0 0 0 0 0 0 0 0 0 0 0 0 0 0 0 0 0 0 0 0
13 13 12 10 10 9 9 9 8 7 5 4 4 3 3 2 2 2 2 1 1 0 0 0 0 0 0 0 0 0 0 0 0 0 0 0 0 0 0 0 0 0 0
13 12 10 9 8 7 6 5 5 5 4 3 3 2 1 1 1 1 1 0 0 0 0 0 0 0 0 0 0 0 0 0 0 0 0 0 0 0 0 0 0 0 0
12 11 9 6 5 4 3 2 2 1 1 1 2 1 0 0 0 0 0 0 0 0 0 0 0 0 0 0 0 0 0 0 0 0 0 0 0 0 0 0 0 0 0
11 10 7 5 4 3 3 1 0 0 0 0 0 0 0 0 0 0 0 0 0 0 0 0 0 0 0 0 0 0 0 0 0 0 0 0 0 0 0 0 0 0 0
10 8 6 5 4 3 3 2 0 0 0 0 0 0 0 0 0 0 0 0 0 0 0 0 0 0 0 0 0 0 0 0 0 0 0 0 0 0 0 0 0 0 0
9 8 6 6 4 3 3 1 0 0 0 0 0 0 0 0 0 0 0 0 0 0 0 0 0 0 0 0 0 0 0 0 0 0 0 0 0 0 0 0 0 0 0
10 8 6 6 4 3 2 1 0 0 0 0 0 0 0 0 0 0 0 0 0 0 0 0 0 0 0 0 0 0 0 0 0 0 0 0 0 0 0 0 0 0 0

GEFSMA_con_probscp_204.txt.gz
Probability
0 0 0 0 0 0 0 0 0 0 0 0 0 0 0 0 0 0 0 0 0 0 0 0 0 0 0 0 0 0 0 0 0 0 0 0 0 0 0 0 0 0 0
0 0 0 0 0 0 0 0 0 0 0 0 0 0 0 0 0 0 0 0 0 0 0 0 0 0 0 0 0 0 0 0 0 0 0 0 0 0 0 0 0 0 0
0 0 0 0 0 0 0 0 0 0 0 0 0 0 0 0 0 0 0 0 0 0 0 0 0 0 0 0 0 0 0 0 0 0 0 0 0 0 0 0 0 0 0
0 0 0 0 0 0 0 0 0 0 0 0 0 0 0 0 0 0 0 0 0 0 0 0 0 0 0 0 0 0 0 0 0 0 0 0 0 0 0 0 0 0 0
0 0 0 0 0 0 0 0 0 0 0 0 0 0 0 0 0 0 0 0 0 0 0 0 1 0 0 0 0 0 0 0 0 0 0 0 0 0 0 0 0 0 0
0 0 0 0 0 0 0 0 0 0 0 0 0 0 0 0 0 0 0 0 0 0 0 0 0 0 0 0 0 1 0 0 0 0 0 0 0 0 0 0 0 0 0
0 0 0 0 0 0 0 0 0 0 0 0 0 0 0 0 0 0 0 0 0 0 0 0 0 0 0 0 0 0 0 0 0 0 0 0 0 0 0 0 0 0 0
0 0 0 0 0 0 0 0 0 0 0 0 0 0 0 0 0 0 0 0 0 0 0 0 0 0 0 0 0 0 0 1 1 1 1 0 0 0 1 1 1 0 0
1 1 0 0 0 0 1 1 1 1 0 0 0 0 0 0 0 0 0 0 0 0 0 0 0 1 0 0 0 0 0 1 2 2 1 0 0 0 1 2 2 1 0
2 1 0 0 0 1 3 3 2 1 1 1 0 0 0 0 0 0 0 0 0 0 0 0 0 0 0 0 0 0 0 0 1 1 0 0 0 0 0 1 1 1 1
1 1 0 1 1 2 5 5 4 3 3 2 1 0 0 0 0 0 0 0 0 0 0 0 0 0 0 0 0 0 0 0 1 0 0 0 0 1 1 0 0 0 0
0 0 1 2 4 5 6 6 6 5 4 3 1 0 0 0 0 0 0 0 0 0 0 0 0 0 0 0 0 0 0 0 0 0 0 0 0 1 2 1 0 0 0
1 1 2 4 5 6 6 6 6 5 4 3 2 1 0 0 0 0 0 0 0 0 0 0 0 0 0 0 0 0 0 0 0 0 0 0 0 1 2 2 1 1 0
2 2 3 4 5 6 7 7 6 5 4 4 4 2 1 0 0 0 0 0 1 1 0 0 0 0 0 0 0 0 0 0 0 0 0 0 0 0 1 1 1 1 1
4 5 5 6 6 7 7 7 6 5 5 5 5 4 1 0 0 0 1 1 2 3 2 1 1 0 0 0 0 0 0 0 0 0 0 0 0 0 0 0 1 1 0
7 8 8 8 8 8 8 7 6 5 5 6 6 5 3 1 0 1 3 3 3 4 4 3 2 1 0 0 0 0 0 0 0 0 0 0 0 0 0 0 0 0 0
11 11 10 10 9 9 7 7 6 5 6 7 6 5 3 1 1 2 3 3 3 4 4 3 2 1 0 0 0 0 0 0 0 0 0 0 0 0 0 0 0 0 0
14 13 12 10 9 8 8 7 7 7 7 7 5 4 3 3 2 3 3 3 3 3 3 3 3 1 1 0 0 0 0 0 0 0 0 0 0 0 0 0 0 0 0
15 14 12 11 9 8 9 9 8 7 7 7 6 4 3 3 3 3 3 3 3 2 2 2 2 2 1 0 0 0 0 0 0 0 0 0 0 0 0 0 0 0 0
12 12 11 10 9 8 9 8 7 7 6 6 6 5 4 3 3 2 2 2 1 1 1 1 1 1 1 0 0 0 0 0 0 0 0 0 0 0 0 0 0 0 0
10 10 10 10 9 8 7 7 7 6 6 6 6 4 3 2 1 1 1 1 0 0 0 0 0 0 0 0 0 0 0 0 0 0 0 0 0 0 0 0 0 0 0
9 9 9 9 8 7 6 6 6 6 6 5 5 3 2 1 0 0 0 0 0 0 0 0 0 0 0 0 0 0 0 0 0 0 0 0 0 0 0 0 0 0 0
10 9 9 8 7 6 4 4 4 4 4 3 2 2 1 0 0 0 0 0 0 0 0 0 0 0 0 0 0 0 0 0 0 0 0 0 0 0 0 0 0 0 0
11 9 8 7 6 5 4 3 3 3 3 1 0 0 0 0 0 0 0 0 0 0 0 0 0 0 0 0 0 0 0 0 0 0 0 0 0 0 0 0 0 0 0
12 10 8 6 6 5 4 3 2 2 2 1 0 0 0 0 0 0 0 0 0 0 0 0 0 0 0 0 0 0 0 0 0 0 0 0 0 0 0 0 0 0 0
12 11 8 6 6 6 4 2 2 2 1 0 0 0 0 0 0 0 0 0 0 0 0 0 0 0 0 0 0 0 0 0 0 0 0 0 0 0 0 0 0 0 0

GEFSMA_con_probscp_210.txt.gz
Probability
0 0 0 0 0 0 0 0 0 0 0 0 0 0 0 0 0 0 1 2 2 2 1 0 0 0 0 0 0 0 0 0 0 0 0 0 0 0 0 0 0 0 0
0 0 0 0 0 0 0 0 0 0 0 0 0 0 0 0 0 0 1 1 1 1 0 0 0 0 0 0 0 0 0 0 0 0 0 0 0 0 0 0 0 0 0
0 0 0 0 0 0 0 0 0 0 0 0 0 0 0 0 0 0 0 0 0 0 0 0 0 0 0 1 1 0 0 0 0 0 0 0 0 0 0 0 0 0 0
0 0 0 0 0 0 0 0 0 0 0 0 0 0 0 0 0 0 0 0 0 0 0 0 0 0 0 1 2 1 0 0 0 0 0 0 0 0 0 0 0 0 0
0 0 0 0 0 0 0 0 1 1 1 1 1 1 0 0 0 0 1 1 1 1 1 1 0 0 0 1 2 2 1 0 0 0 0 0 0 0 0 0 0 0 0
0 0 0 0 0 0 0 0 1 2 2 2 1 1 0 0 0 0 1 2 2 2 2 1 0 0 0 0 1 2 2 1 0 1 1 1 1 0 0 0 0 0 0
0 0 0 2 2 1 1 1 2 3 3 3 3 2 0 0 0 0 1 1 1 1 1 0 0 0 0 1 1 3 3 2 1 1 2 2 1 0 0 0 0 0 0
2 2 3 4 5 4 3 3 3 3 3 4 4 2 1 1 1 0 0 0 0 0 0 0 0 1 1 3 3 3 3 3 2 1 1 1 1 0 0 0 0 0 0
4 5 6 7 6 5 4 4 3 3 3 3 3 2 1 1 1 0 0 0 0 0 0 0 0 1 3 4 5 4 3 1 1 0 0 0 0 0 0 0 0 0 0
4 5 7 7 6 6 6 5 4 4 4 3 3 3 3 2 2 1 0 0 0 0 0 0 0 1 3 4 5 5 3 1 0 1 1 0 0 0 0 0 0 0 0
4 5 7 8 8 7 6 6 6 6 6 5 4 4 4 5 4 3 2 0 0 0 0 0 0 1 3 5 6 5 3 1 0 1 1 0 0 0 1 1 0 0 0
5 5 7 9 9 8 7 7 7 8 8 7 6 6 7 7 6 5 4 2 1 0 0 1 2 2 4 6 6 5 3 1 0 1 1 0 0 0 1 2 1 1 1
5 5 6 8 10 10 9 8 9 10 9 8 8 8 9 9 9 8 6 4 2 1 1 1 3 4 4 6 5 3 2 1 0 0 0 0 0 0 1 2 2 2 2
5 6 6 7 10 11 12 11 11 11 11 9 8 8 9 10 11 9 7 6 4 3 2 3 4 4 4 4 3 2 2 1 0 0 0 0 0 0 0 1 1 1 1
7 7 8 9 11 12 13 12 11 11 11 10 8 8 9 10 11 10 9 8 7 5 3 3 3 3 3 2 1 2 2 1 0 0 0 0 0 0 0 0 0 0 0
12 11 11 12 12 12 12 11 10 10 11 11 10 9 10 11 10 10 10 10 10 7 4 4 3 3 2 1 1 2 2 1 1 0 0 0 0 0 0 0 0 0 0
15 15 14 13 12 12 12 11 11 11 12 13 12 10 9 10 10 10 10 11 11 9 6 4 5 5 3 3 3 3 3 2 2 1 0 0 0 0 0 0 0 0 0
17 17 16 14 12 11 11 11 12 13 13 13 12 10 8 8 9 10 11 12 11 9 6 5 6 6 4 3 3 3 3 3 2 1 0 0 0 0 0 0 0 0 0
16 16 15 14 11 10 10 11 12 13 13 12 10 9 7 7 8 10 12 12 11 9 7 6 6 6 4 3 3 2 2 2 2 0 0 0 0 0 0 0 0 0 0
14 13 12 12 11 10 10 10 11 12 12 11 10 8 7 6 8 9 10 10 10 9 7 6 6 5 4 3 2 1 1 3 2 1 0 0 0 0 0 0 0 0 0
13 13 11 11 11 10 9 8 9 10 10 10 9 9 7 6 6 6 6 6 8 8 7 6 6 5 3 2 1 0 2 4 4 1 0 0 0 1 1 0 0 0 0
16 15 13 11 11 9 7 6 6 8 9 10 10 9 8 6 4 3 2 2 4 5 5 4 3 3 3 2 1 1 3 5 5 3 1 0 0 1 2 1 0 0 0
21 19 15 12 10 9 7 5 5 7 9 10 10 9 8 5 3 2 1 1 2 2 2 1 1 2 2 2 1 1 2 3 4 3 1 0 0 1 1 1 0 0 0
24 21 17 13 11 9 6 4 4 6 9 9 9 8 7 5 3 2 2 2 2 2 1 0 0 1 1 1 1 1 1 1 2 2 1 0 0 0 0 0 0 0 0
22 19 16 13 10 7 4 2 3 5 7 7 7 6 6 4 2 1 2 3 4 3 1 0 0 0 0 0 0 0 0 0 0 1 1 0 0 0 0 0 0 0 0
20 17 14 12 9 5 2 0 2 5 6 6 5 4 4 3 1 1 2 3 4 3 2 1 0 0 0 0 0 0 1 1 1 0 0 0 0 0 0 0 0 0 0

GEFSMA_con_probscp_216.txt.gz
Probability
0 0 1 0 0 0 0 0 0 1 1 1 1 1 1 0 0 1 2 3 3 3 3 2 0 0 0 0 0 1 2 3 3 1 0 0 0 0 0 0 0 0 0
0 1 1 1 0 0 0 1 1 2 2 2 2 2 2 1 0 1 3 4 4 4 4 3 2 1 1 0 0 1 1 2 3 2 1 0 0 0 0 0 0 0 0
2 3 3 2 2 1 1 2 3 3 3 3 3 3 3 2 2 3 4 3 4 4 5 5 4 3 2 1 1 2 1 1 2 3 2 1 0 0 0 1 2 1 1
5 6 5 3 3 3 3 3 3 3 3 3 3 3 3 3 3 3 3 2 2 3 5 7 7 5 3 3 3 4 4 3 2 3 3 2 0 0 1 2 3 3 2
7 7 6 4 3 3 3 3 3 3 4 3 3 3 3 4 3 2 1 1 1 2 4 6 7 6 5 4 4 6 7 7 5 3 3 2 1 0 1 2 3 3 3
8 8 7 6 4 3 3 3 3 4 4 4 3 3 3 4 4 3 1 1 1 2 3 5 6 6 6 6 6 7 9 9 8 5 4 3 2 1 1 1 1 2 2
10 9 8 7 5 4 4 5 5 5 4 4 3 3 3 4 5 5 4 2 2 3 3 5 7 8 8 6 6 8 10 10 9 6 4 4 2 1 0 0 0 1 1
13 11 10 9 8 8 7 8 7 7 6 5 5 4 3 3 4 6 7 5 3 3 3 5 10 12 10 8 5 7 10 11 9 7 5 3 2 1 0 0 0 0 0
16 14 13 12 11 11 11 10 10 10 8 7 7 6 5 4 5 6 6 5 3 3 3 4 8 12 12 9 7 6 8 9 9 8 5 3 3 2 0 0 0 0 0
18 18 17 15 14 14 14 13 12 13 12 10 10 10 8 7 7 6 5 4 3 3 3 2 4 8 12 11 8 7 7 7 8 7 5 3 3 1 0 0 0 0 0
20 21 20 17 16 16 15 14 14 16 16 14 13 12 11 9 9 7 6 4 3 3 3 3 3 5 9 10 8 6 6 5 5 5 4 3 3 2 1 0 0 0 0
22 23 23 21 17 16 15 14 14 16 18 17 15 13 12 11 10 9 8 7 5 5 5 6 5 5 7 7 7 5 4 4 3 3 3 3 2 2 1 0 0 0 0
22 25 27 24 19 14 14 14 14 15 17 18 15 14 14 13 12 11 10 9 8 7 7 7 7 6 6 6 6 4 3 3 2 2 2 2 2 1 1 0 0 0 0
23 25 27 25 21 15 14 15 15 15 17 17 16 14 14 14 14 12 11 11 10 9 7 6 6 6 6 6 5 3 2 1 1 1 1 1 1 0 0 0 0 0 0
25 24 24 25 22 17 16 16 15 15 16 16 15 14 14 14 15 14 12 12 12 10 7 5 5 5 6 5 3 2 2 1 0 0 0 0 0 0 0 0 0 0 0
29 26 24 24 22 20 19 17 16 15 14 13 13 13 13 14 16 15 14 14 14 12 9 6 5 5 5 5 3 3 2 1 0 0 0 0 0 0 0 0 0 0 0
32 29 25 24 23 21 19 17 16 15 13 13 13 13 13 14 16 17 16 15 15 13 9 7 5 4 5 5 5 4 3 2 1 0 0 0 0 0 0 0 0 0 0
33 30 26 23 23 21 19 17 17 16 14 12 12 12 12 13 16 16 15 14 14 12 10 8 5 4 4 6 6 5 3 3 2 1 0 0 0 0 0 0 0 0 0
30 29 26 24 24 24 21 18 18 17 15 13 12 11 11 13 14 14 13 14 13 12 11 9 6 4 5 6 6 4 2 2 1 1 0 0 0 0 0 0 0 0 0
29 28 26 24 25 24 20 16 16 16 15 14 12 11 10 11 11 10 10 11 12 11 10 9 7 6 6 6 5 3 1 0 0 0 0 0 0 0 0 0 0 0 0
29 29 29 26 24 20 16 14 13 14 14 13 11 10 9 8 8 7 7 8 9 8 8 7 7 6 6 5 4 2 1 1 1 0 0 0 0 0 0 0 0 0 0
30 31 31 29 25 18 12 10 11 12 12 10 8 7 6 6 6 6 5 5 5 5 6 6 5 5 5 4 3 2 2 3 2 0 0 0 0 0 0 0 0 0 0
30 31 32 31 25 17 9 7 8 10 10 8 7 5 5 5 5 5 5 4 4 4 4 4 4 3 3 3 2 2 2 2 1 0 0 0 0 0 0 0 0 0 0
29 29 30 29 24 15 7 4 6 8 8 7 6 5 5 5 4 3 3 3 4 4 2 2 2 2 1 1 1 1 1 0 0 0 0 0 0 0 0 0 0 0 0
29 27 27 27 22 14 6 3 3 4 6 6 6 6 7 6 3 1 1 3 3 3 2 2 1 1 0 0 1 1 1 0 0 0 0 0 0 0 0 0 0 0 0
28 26 25 26 22 13 6 2 1 3 4 5 6 8 8 6 3 1 1 2 3 3 3 2 1 0 0 0 0 1 1 1 0 0 1 1 1 0 0 0 0 0 0

GEFSMA_con_probscp_222.txt.gz
Probability
0 0 0 0 0 0 0 0 0 0 0 1 3 3 3 2 1 0 0 0 0 1 2 2 2 2 2 2 1 1 0 0 0 0 0 0 0 0 0 0 0 0 0
0 0 0 0 0 0 0 0 0 1 1 2 3 3 3 3 2 1 0 0 1 2 3 4 3 3 3 3 2 2 1 1 0 0 0 0 0 0 0 0 0 0 0
1 1 0 0 0 0 0 0 0 1 2 3 3 3 3 3 3 2 0 0 1 2 4 5 5 5 3 3 3 3 3 2 1 1 1 1 0 0 0 0 0 0 0
2 2 1 0 0 0 0 0 0 1 1 3 3 3 3 3 3 1 0 0 0 1 2 4 6 5 3 2 2 2 3 3 3 3 3 2 1 1 0 0 0 0 0
2 2 1 0 0 0 0 0 0 0 1 2 3 3 3 3 2 1 0 0 0 0 0 2 4 4 4 2 2 2 3 4 5 5 5 4 4 2 1 0 0 0 0
2 1 0 0 0 0 0 0 0 0 0 1 1 2 2 1 1 1 0 0 0 0 0 0 1 2 3 3 4 4 4 6 8 7 5 5 5 4 1 0 0 0 0
2 2 1 1 0 0 0 1 1 1 1 1 1 1 1 1 0 0 0 0 0 0 0 0 0 0 1 3 6 6 6 7 8 8 7 7 7 4 1 0 0 0 0
4 4 3 2 1 1 1 1 1 2 2 2 2 1 1 1 1 1 1 1 0 0 0 0 0 0 0 1 3 5 6 7 7 8 8 8 8 5 2 1 0 0 0
6 6 5 4 3 3 3 3 3 3 3 3 3 3 2 2 2 2 2 2 1 1 0 0 0 0 0 0 1 3 5 5 5 6 6 7 6 5 3 2 1 1 0
7 7 6 6 6 6 6 6 4 3 3 3 3 3 3 3 3 3 3 3 3 2 1 1 0 0 0 0 0 2 4 3 2 2 3 4 5 4 3 2 2 1 1
7 7 6 6 7 8 8 6 4 3 4 4 3 3 3 3 3 3 3 3 3 3 2 1 0 0 0 0 1 2 2 1 1 1 1 3 4 5 3 2 1 1 0
8 6 5 5 6 7 6 4 4 4 5 5 4 4 5 5 5 4 4 4 3 3 1 0 0 0 1 1 2 2 2 2 1 0 1 2 3 4 3 1 0 0 0
8 8 6 5 6 6 4 3 4 5 6 6 6 6 7 8 8 7 6 5 4 2 1 0 0 0 1 1 1 2 3 3 2 1 0 1 2 1 1 1 0 0 0
9 10 8 6 5 5 4 3 5 6 6 6 6 7 8 9 10 10 9 7 5 2 0 0 0 0 1 1 0 1 3 3 2 1 0 0 0 0 0 0 1 0 0
8 8 7 6 4 3 3 5 6 6 6 6 6 6 7 8 8 9 9 7 5 3 1 0 0 0 0 0 0 1 2 3 2 1 0 0 0 0 0 0 0 0 0
7 6 5 4 3 2 3 6 7 7 6 7 7 7 7 6 6 6 6 5 4 3 2 1 0 0 0 0 0 0 1 2 2 1 0 0 0 0 0 0 0 0 0
6 5 4 4 3 3 5 8 8 7 6 7 7 7 6 6 6 6 5 4 4 4 3 2 1 0 0 0 0 0 0 1 2 1 0 0 0 0 0 0 0 0 0
6 5 5 6 7 7 8 10 9 7 6 7 6 5 5 6 6 6 6 6 6 5 4 3 1 0 0 0 0 0 0 1 2 2 1 0 0 0 0 0 0 0 0
8 7 7 9 10 9 9 10 10 7 6 5 4 3 3 5 6 6 6 6 6 6 5 3 2 1 0 0 0 0 0 0 1 1 1 0 0 0 0 0 0 0 0
11 10 11 11 10 9 8 8 8 6 3 2 1 1 1 3 4 4 4 4 4 4 4 3 3 1 0 0 0 0 0 0 0 0 0 0 0 0 0 0 0 0 0
11 12 13 12 11 11 10 8 7 5 2 1 1 1 0 1 2 2 2 1 1 1 2 3 3 2 1 1 1 0 0 0 0 0 0 0 0 0 0 0 0 0 0
12 13 15 15 14 13 11 9 7 5 3 2 2 1 0 0 1 1 1 0 0 0 1 1 2 2 2 2 2 1 0 0 0 0 0 0 0 0 0 0 0 0 0
18 18 18 18 16 12 9 8 6 5 3 3 2 1 0 0 0 0 0 0 0 0 0 0 1 1 2 3 3 2 0 0 0 0 0 0 0 0 0 0 0 0 0
22 21 20 18 15 10 6 4 4 3 3 2 1 0 0 0 0 0 0 0 0 0 0 0 0 0 1 1 2 1 0 0 0 0 0 0 0 0 0 0 0 0 0
22 21 18 16 14 9 4 1 1 2 3 2 1 0 1 1 2 1 1 1 0 0 0 0 0 0 0 0 0 0 0 0 0 0 0 0 0 0 0 0 0 0 0
20 19 16 14 12 8 2 0 0 1 2 2 1 1 2 2 3 2 2 2 1 0 0 0 0 0 0 0 0 0 0 0 0 0 0 0 0 0 0 0 0 0 0

GEFSMA_con_probscp_228.txt.gz
Probability
0 0 0 0 0 0 0 0 0 0 1 2 3 3 3 3 3 3 2 1 2 2 2 3 4 4 4 4 4 4 2 1 0 0 0 0 0 0 0 0 0 0 0
0 0 0 0 0 0 0 0 0 0 0 1 3 3 3 3 3 3 2 1 1 1 2 2 3 4 5 5 6 6 5 3 2 1 0 0 0 0 0 0 0 0 0
0 0 0 0 0 0 0 0 0 0 0 1 2 3 3 3 3 3 2 1 0 0 1 1 1 2 4 5 6 7 7 6 5 4 2 1 0 0 0 0 0 0 0
0 0 0 0 0 0 0 0 0 1 2 1 1 3 3 3 2 1 1 0 0 0 0 0 0 1 2 3 4 5 5 5 6 6 5 3 1 1 1 0 0 0 0
0 0 0 0 0 0 0 0 0 1 2 2 1 2 2 2 1 0 0 0 0 0 0 0 0 0 1 1 2 3 3 4 4 5 6 5 3 2 2 1 0 0 0
0 0 0 0 0 0 0 0 0 1 1 1 1 1 1 1 0 0 0 0 0 0 0 0 0 0 0 0 1 2 3 3 3 5 6 6 5 3 3 1 0 0 0
0 0 0 0 0 0 0 0 0 0 0 0 0 0 0 0 0 0 0 0 1 1 1 0 0 0 0 0 0 1 2 2 3 5 6 6 5 4 3 2 1 1 0
0 0 0 0 0 0 0 0 0 0 1 1 1 1 1 1 1 1 1 1 2 2 2 1 0 0 0 0 0 0 0 1 2 4 5 4 4 3 2 3 3 2 1
0 0 0 0 0 0 0 0 1 1 2 2 2 2 2 2 2 2 2 2 2 2 1 1 0 0 0 0 0 0 0 0 1 1 1 1 2 1 1 2 3 3 3
0 0 0 0 0 0 0 0 1 2 3 3 3 3 3 3 3 3 3 2 1 0 1 1 1 1 0 0 0 0 0 0 0 0 0 0 1 1 1 3 4 5 5
0 0 0 0 0 1 0 0 1 1 2 2 2 2 3 3 3 2 1 1 0 0 0 1 2 1 0 0 0 0 0 0 0 0 0 0 1 2 3 4 5 6 6
0 0 0 0 0 0 0 0 0 0 1 1 1 2 2 3 3 2 0 0 0 0 0 1 1 0 0 0 0 0 0 0 0 0 0 0 1 3 3 4 5 5 5
0 0 0 0 0 0 0 0 1 1 1 1 2 2 3 3 3 2 1 1 1 0 0 1 1 1 0 0 0 0 0 0 0 0 0 0 0 1 2 3 3 3 3
0 0 0 0 0 0 0 0 1 1 2 3 3 3 3 3 3 3 3 4 3 1 1 2 2 2 1 0 0 0 0 0 0 0 0 0 0 0 0 1 2 3 3
0 0 0 1 1 1 1 1 1 2 3 3 3 3 4 4 3 3 4 5 4 2 1 2 3 2 1 0 0 0 0 0 0 0 0 0 0 0 0 0 1 1 2
0 0 0 1 2 2 2 2 2 2 3 3 4 4 5 5 4 4 4 4 4 4 3 3 3 3 1 0 0 0 0 0 0 0 0 0 0 0 0 0 0 0 1
1 1 1 1 2 2 2 2 2 2 3 4 5 6 7 6 5 4 4 4 4 5 5 4 3 3 2 1 1 0 0 0 0 0 0 0 0 0 0 0 0 0 0
3 3 3 3 3 3 3 3 3 3 4 5 5 6 7 7 6 4 3 3 4 4 5 5 4 3 3 2 1 0 0 0 0 0 0 0 0 0 0 0 0 0 0
5 5 6 6 6 6 6 6 6 6 7 7 6 6 6 6 5 3 2 2 2 3 3 3 3 3 3 3 1 1 1 0 0 0 0 0 0 0 0 0 0 0 0
7 8 9 9 9 8 8 9 9 9 9 9 7 6 5 4 3 2 1 1 1 1 1 1 1 1 2 2 2 2 2 1 0 0 0 0 0 0 0 0 0 0 0
11 12 13 13 12 10 9 9 9 9 9 8 7 6 5 4 2 1 0 0 0 0 0 0 0 0 1 1 2 3 3 2 1 0 0 0 0 0 0 0 0 0 0
14 16 16 15 14 12 9 7 7 7 8 8 7 6 6 4 2 0 0 0 0 0 0 0 0 0 0 0 1 2 2 2 1 1 1 0 0 0 0 0 0 0 0
15 15 15 15 14 12 8 5 5 7 9 9 8 8 6 4 1 0 0 0 0 0 0 0 0 0 0 0 0 1 1 1 1 1 2 1 0 0 0 0 0 0 0
14 13 14 14 13 11 7 4 4 7 10 11 10 8 6 3 1 0 0 0 0 0 0 0 0 0 0 0 0 0 0 0 0 1 1 1 0 0 0 0 0 0 0
12 12 12 13 12 10 6 4 4 6 8 9 8 6 3 1 0 0 0 0 0 0 1 1 1 0 0 0 0 0 0 0 0 0 0 0 0 0 0 0 0 0 0
11 10 11 11 11 9 6 4 4 6 7 7 7 5 2 0 0 0 0 0 0 0 1 2 2 1 0 0 0 1 1 1 0 0 0 0 0 1 1 1 0 0 0

GEFSMA_con_probscp_234.txt.gz
Probability
3 3 3 2 3 3 3 3 3 3 3 3 3 3 3 2 2 2 2 3 3 2 1 0 1 1 0 0 0 0 0 1 1 1 0 0 0 0 0 0 0 0 0
3 3 3 3 3 3 3 2 2 2 2 2 2 2 2 1 1 1 1 2 2 2 1 1 1 1 0 0 0 0 1 2 2 2 1 0 0 0 0 0 0 0 0
2 3 3 3 3 2 1 1 1 1 1 1 1 0 0 0 0 0 0 1 1 1 2 1 1 1 0 0 0 0 1 2 3 3 2 1 0 0 0 0 0 0 0
1 1 2 2 1 1 0 0 0 0 0 1 1 1 0 0 0 1 1 1 1 1 1 1 1 1 0 0 0 0 1 2 2 2 2 2 1 1 1 1 1 0 0
0 0 1 1 0 0 0 0 0 0 0 1 2 2 1 1 1 2 2 2 2 2 2 2 2 2 1 0 0 0 1 1 1 1 1 2 2 2 2 2 2 1 1
0 0 0 0 0 0 0 0 0 0 0 1 2 2 1 2 3 3 3 3 3 2 2 3 4 4 3 2 1 1 1 1 1 1 1 1 2 3 3 3 3 3 2
0 0 0 0 0 0 0 0 0 0 0 0 1 1 1 2 3 3 3 3 1 1 1 2 3 4 4 3 1 0 0 1 1 2 2 2 2 2 2 2 3 3 3
0 0 0 0 0 0 0 0 0 0 0 0 0 0 0 1 2 2 3 2 1 0 0 1 1 2 3 3 1 0 0 0 1 1 2 3 3 3 2 2 2 2 2
0 0 1 1 1 1 1 1 1 1 1 0 0 0 0 0 0 1 2 2 1 0 0 0 0 0 1 2 2 1 0 0 0 0 1 3 3 3 3 2 2 2 1
0 1 3 4 3 3 3 3 3 3 3 1 0 0 0 1 1 1 1 1 0 0 0 0 0 0 1 3 3 1 1 0 0 0 0 1 3 3 2 2 3 2 1
1 2 5 6 5 5 5 5 6 5 4 3 2 2 1 2 2 2 1 1 1 1 1 1 1 1 2 2 2 2 2 1 1 0 0 1 2 2 2 2 2 3 3
0 1 3 5 5 5 6 8 8 6 4 5 6 4 3 3 3 4 4 4 3 3 2 2 2 3 3 2 1 2 3 3 2 1 0 0 1 2 2 2 2 3 3
0 1 2 3 3 4 6 8 9 5 3 4 6 5 4 3 4 5 6 6 5 4 3 3 3 3 3 2 1 1 2 3 3 2 0 0 0 1 2 1 2 2 2
1 2 3 3 3 4 6 8 8 5 3 3 5 6 5 5 6 7 7 7 7 6 5 4 3 3 3 3 1 1 2 3 2 1 0 0 0 0 0 0 1 2 2
3 4 5 6 5 6 7 9 8 6 4 4 5 7 8 8 8 10 10 9 9 9 8 6 5 4 3 3 2 2 2 2 1 0 0 0 0 0 0 0 0 1 1
8 9 9 9 8 8 9 10 9 8 6 6 6 8 9 10 10 12 13 12 11 11 10 9 7 5 4 3 3 3 3 3 1 0 0 0 0 0 0 0 0 0 0
14 14 13 11 10 9 9 10 10 9 8 7 7 9 10 11 11 12 12 12 12 12 12 10 7 5 4 4 4 4 3 3 2 1 0 0 0 0 0 0 0 0 0
17 17 15 13 11 9 9 10 10 9 9 9 9 10 11 11 11 11 11 11 11 11 11 9 7 6 6 6 6 5 4 4 3 2 1 0 0 0 0 0 0 0 0
20 20 20 18 14 10 10 11 10 10 11 11 10 10 10 11 11 11 10 10 10 10 10 9 7 7 6 6 6 6 5 5 4 3 2 1 0 0 0 0 0 0 0
21 22 22 21 18 14 13 13 12 12 12 12 11 9 9 10 12 12 11 11 11 11 10 9 7 5 4 5 5 4 4 5 5 4 3 1 1 1 0 0 0 0 0
20 20 21 21 20 17 14 14 15 14 14 14 12 10 10 11 12 11 10 11 12 12 11 10 8 5 4 4 3 2 2 4 5 4 3 3 2 2 1 1 1 0 0
19 19 19 21 21 17 12 11 13 15 16 15 14 12 12 12 11 10 9 8 9 10 11 11 10 7 6 4 2 0 0 1 2 2 2 3 3 3 3 2 2 1 0
25 23 22 22 21 16 9 7 9 13 16 16 15 15 15 14 13 11 9 7 7 7 9 10 9 7 6 5 2 1 0 0 0 0 1 1 2 3 3 3 2 1 0
31 29 25 24 23 17 9 5 5 9 14 15 16 17 18 16 14 13 12 10 8 7 6 6 5 4 4 3 2 1 1 1 1 0 1 1 1 2 2 2 2 1 0
33 31 28 27 26 20 10 4 4 9 13 14 17 18 18 16 13 12 12 11 10 7 4 2 2 2 1 1 1 1 1 2 2 2 2 3 3 2 1 1 1 0 0
31 31 30 29 28 22 10 2 4 9 13 14 17 17 16 14 12 11 11 11 9 7 5 2 1 1 0 0 0 1 1 2 3 3 3 4 4 2 1 0 0 0 0

GEFSMA_con_probscp_240.txt.gz
Probability
3 2 2 2 2 1 1 3 3 3 3 3 3 3 2 1 0 1 2 3 2 1 0 0 0 0 0 0 0 0 0 0 0 1 1 1 0 0 0 0 0 0 0
2 3 3 3 2 2 2 3 3 2 2 2 2 2 2 1 0 1 2 2 2 1 1 1 1 1 0 0 0 0 0 0 0 0 1 1 0 0 0 0 0 0 0
2 3 3 2 1 2 2 2 1 1 1 1 0 1 1 1 1 1 2 3 3 3 3 4 4 3 2 1 1 1 2 2 1 1 0 1 1 0 1 1 1 0 0
1 2 2 1 0 1 1 1 0 0 0 0 0 1 2 3 3 3 3 4 4 4 5 5 5 5 4 4 3 3 4 4 3 2 2 2 1 1 1 2 2 1 1
0 1 1 0 0 0 0 0 0 0 0 0 0 1 3 4 4 4 3 3 3 4 4 4 4 5 5 5 4 4 4 5 5 4 3 3 1 1 1 2 2 2 2
1 1 0 0 0 0 0 0 0 0 0 0 0 1 2 3 4 4 3 2 3 3 3 4 5 5 5 6 6 5 4 5 5 4 3 2 1 0 1 1 2 2 2
1 2 1 0 0 0 0 0 0 0 0 0 0 0 1 2 3 4 4 3 3 1 1 3 6 7 7 7 6 5 5 5 5 4 3 2 1 0 0 1 1 1 1
2 2 1 1 0 0 1 1 0 1 1 2 1 1 0 1 2 4 4 4 4 2 1 3 6 9 9 8 6 5 5 5 5 5 4 3 1 1 0 0 0 1 1
4 3 2 2 1 1 2 3 2 3 3 3 2 1 0 0 1 2 3 4 6 6 4 4 7 10 11 11 9 6 6 6 6 6 5 4 3 2 1 1 0 0 1
7 5 4 4 4 4 4 5 6 6 5 4 2 2 1 1 2 2 3 5 8 9 7 6 8 11 13 13 11 8 6 6 6 6 6 6 5 4 3 2 1 0 0
7 7 7 8 8 7 7 8 10 10 9 6 4 3 4 4 4 5 5 6 7 8 7 7 9 12 12 11 9 7 6 6 6 6 6 6 6 4 3 3 2 1 1
9 10 12 13 12 10 10 12 14 13 12 9 6 6 7 7 7 7 7 6 6 7 8 9 10 12 10 8 6 5 6 5 4 4 4 5 5 4 3 3 3 3 2
13 15 16 16 15 14 15 16 16 15 14 12 10 8 7 6 6 8 9 8 7 8 10 10 12 12 11 8 5 4 5 4 3 3 3 3 3 3 3 3 3 3 3
16 19 20 20 20 17 18 19 18 16 15 14 13 11 9 7 6 9 12 11 8 9 11 13 14 14 13 10 5 3 4 3 3 1 1 1 1 1 2 2 2 3 3
17 21 25 25 23 21 20 21 20 19 18 17 16 14 13 11 10 12 13 13 12 11 13 15 15 15 14 9 4 3 3 3 2 1 0 0 0 0 0 0 1 1 2
20 24 28 28 25 24 23 22 22 21 19 19 17 17 17 16 16 15 15 15 14 14 15 15 15 14 12 7 4 3 3 3 3 1 0 0 0 0 0 0 0 0 1
26 28 30 29 27 27 25 23 21 20 21 20 19 18 18 18 18 18 18 17 15 16 17 16 15 14 12 9 5 3 3 3 3 2 1 1 0 0 0 0 0 0 0
30 31 31 31 29 27 26 23 20 19 21 21 20 20 21 21 21 20 18 17 17 18 18 16 14 13 13 12 9 5 4 3 3 2 2 2 1 1 0 0 0 0 0
33 33 33 33 31 28 26 25 22 21 22 21 20 21 22 25 25 23 20 19 18 18 18 16 12 11 12 12 11 8 6 5 2 1 1 2 2 1 0 0 0 0 0
33 33 33 34 33 31 31 29 25 24 24 24 23 23 24 26 26 23 22 21 20 19 18 16 13 12 12 11 10 9 7 6 3 1 1 1 1 2 1 0 0 0 0
32 33 34 34 34 32 30 29 25 23 25 26 26 24 23 23 20 18 19 20 19 17 16 16 15 14 12 10 9 7 6 5 3 2 2 1 2 3 3 2 0 0 0
32 33 33 34 33 29 24 21 20 21 24 25 25 24 22 18 15 14 14 15 14 13 13 14 15 14 12 10 9 7 7 5 3 3 3 2 3 4 5 3 1 0 0
36 34 33 34 33 28 19 13 15 20 23 24 24 23 20 17 14 13 12 12 11 9 10 12 14 14 13 12 9 8 7 5 3 3 3 2 3 4 5 4 2 1 0
41 39 37 36 34 28 19 11 11 17 22 23 24 22 20 17 15 13 12 11 11 10 9 10 11 12 12 11 9 6 6 4 3 3 3 3 3 4 5 5 4 2 1
46 44 40 38 37 31 21 11 10 15 20 21 22 21 19 17 15 13 12 12 12 12 10 9 8 8 9 8 5 5 5 4 2 2 3 4 4 5 5 6 6 3 1
47 44 40 39 39 34 24 14 12 17 20 20 21 20 18 16 14 12 12 13 14 13 11 9 6 6 6 5 3 4 5 4 2 2 3 5 5 5 5 6 7 4 1

GEFSMA_con_probscp_246.txt.gz
Probability
0 0 0 0 0 0 0 0 0 0 0 0 0 0 0 0 0 0 0 0 0 0 0 0 0 0 0 0 1 0 0 0 0 0 0 0 0 0 0 0 0 0 0
0 0 0 0 0 0 0 0 0 0 0 0 0 0 1 1 0 1 1 1 1 1 2 2 2 2 2 2 2 1 0 0 0 0 0 0 0 0 0 0 0 0 0
0 0 0 0 0 0 0 0 0 0 0 0 0 0 1 1 1 2 2 2 2 3 4 4 4 4 4 4 3 2 0 0 1 0 0 0 0 0 0 0 0 0 0
0 0 0 0 0 0 0 0 0 0 0 0 0 1 1 1 1 2 2 2 1 2 3 3 4 4 4 4 3 1 0 1 1 0 0 1 0 0 0 0 0 0 0
0 0 0 0 0 0 0 0 0 0 0 0 1 1 1 0 0 1 1 1 0 0 1 1 2 3 4 5 4 2 1 2 2 1 0 0 0 0 0 0 0 0 0
0 0 0 0 0 0 0 0 0 0 0 0 1 2 1 0 0 0 0 0 0 0 0 0 1 3 4 5 5 5 4 4 3 1 0 0 0 0 0 0 0 0 0
0 0 0 0 0 0 0 0 0 0 0 0 0 1 1 0 0 0 0 0 0 0 0 0 0 1 3 4 5 6 5 5 4 2 1 0 0 0 0 0 0 0 0
0 0 0 0 0 0 0 0 0 0 0 0 0 0 0 0 0 0 0 0 0 0 0 0 0 0 1 2 3 4 5 5 4 4 2 1 1 0 0 0 0 0 0
0 0 0 0 0 0 0 0 0 0 0 0 0 0 0 0 0 0 0 0 0 0 0 0 0 0 0 1 1 2 3 3 4 3 3 2 2 1 1 0 0 0 0
0 0 0 0 0 0 0 0 0 0 0 0 0 0 0 0 0 0 0 0 0 0 0 0 0 0 0 0 0 1 1 2 2 2 2 2 2 2 2 1 0 0 0
0 1 2 2 1 1 1 1 0 0 0 0 1 0 0 0 0 0 0 0 0 0 0 0 0 0 0 0 0 0 0 1 1 0 0 0 1 2 3 2 1 1 0
1 2 3 4 4 3 2 2 1 1 1 2 2 1 1 1 1 1 1 0 0 0 0 0 1 0 0 0 0 1 0 0 0 0 0 0 0 1 2 2 2 2 1
1 2 5 6 6 4 3 3 4 5 5 5 5 4 3 3 3 2 2 1 1 0 0 0 0 0 1 1 1 1 1 0 0 0 0 0 0 0 1 1 2 2 2
1 4 7 8 7 5 5 6 7 7 7 7 7 6 6 5 4 3 3 3 2 1 1 1 1 1 2 2 2 2 2 1 0 0 0 0 0 0 0 0 1 1 1
2 5 9 9 8 6 7 8 7 6 7 8 7 6 6 5 4 3 3 3 3 3 2 2 2 1 2 3 3 3 2 1 0 0 0 0 0 0 0 0 0 0 0
3 5 8 9 8 7 8 9 7 6 7 8 7 6 6 6 5 4 4 4 4 4 3 3 3 2 2 3 3 3 2 1 0 0 0 0 0 0 0 0 0 0 0
5 5 7 8 8 7 7 8 8 7 7 8 7 7 8 8 7 6 6 6 6 5 4 3 4 4 3 3 3 3 2 1 0 0 0 0 0 0 0 0 0 0 0
6 6 7 9 9 8 7 8 8 8 7 7 6 6 7 8 8 7 6 6 6 6 5 4 4 4 4 3 3 3 2 1 0 0 0 0 0 0 0 0 0 0 0
9 9 11 13 13 11 9 8 8 7 7 7 6 5 6 7 7 6 6 6 6 6 6 5 4 4 3 3 3 3 2 1 0 0 0 0 0 0 0 0 0 0 0
16 16 17 19 17 13 10 8 7 7 7 7 6 5 6 6 6 5 4 4 5 6 6 6 5 4 3 3 3 3 3 1 0 0 0 0 0 0 0 0 0 0 0
22 22 23 23 20 15 12 10 9 9 8 6 5 4 4 5 5 4 3 3 4 6 6 6 6 5 4 4 3 3 3 2 1 0 0 0 0 0 0 0 0 0 0
23 23 24 23 21 17 14 12 12 11 10 8 6 5 5 5 5 4 3 3 4 5 7 7 7 6 6 5 4 3 3 3 2 1 0 0 0 0 0 0 0 0 0
23 22 21 20 19 17 15 12 11 13 13 12 10 8 8 8 7 5 3 4 4 6 8 9 8 7 7 6 4 3 3 3 2 1 0 0 0 0 0 0 0 0 0
23 21 19 18 18 16 14 10 8 12 15 14 13 10 10 10 9 6 5 5 6 6 7 8 8 7 6 5 4 4 3 3 2 1 0 0 0 0 0 0 0 0 0
21 20 19 18 18 16 12 6 4 10 14 15 13 11 10 10 9 7 6 6 6 6 5 4 4 5 3 2 3 5 5 4 2 0 0 0 0 0 0 0 0 0 0
19 19 18 18 16 14 9 3 2 8 13 14 13 12 10 9 8 7 6 6 6 6 4 2 2 2 1 1 2 5 7 6 2 0 0 0 0 0 0 0 0 0 0

GEFSMA_con_probscp_252.txt.gz
Probability
0 0 0 0 0 0 0 0 0 0 0 0 0 0 0 0 1 1 1 0 0 0 0 0 0 0 0 1 2 2 1 0 0 0 0 0 0 0 0 0 0 0 0
0 0 0 0 0 0 0 0 0 0 0 0 0 0 0 1 2 2 1 1 0 0 0 0 0 0 0 0 1 1 1 0 0 0 0 0 0 0 0 0 0 0 0
0 0 0 0 0 0 0 0 0 0 0 0 0 0 1 2 3 2 2 1 0 0 0 0 1 1 1 1 0 0 1 0 0 0 0 0 0 0 0 0 0 0 0
0 0 0 0 0 0 0 0 0 0 0 0 0 0 1 2 2 1 1 0 0 0 0 0 1 2 2 2 1 1 1 1 1 1 0 0 0 0 0 0 0 0 0
0 0 0 0 0 0 0 0 0 0 0 0 0 0 0 1 1 0 0 0 0 0 0 0 1 1 2 3 2 2 2 1 2 2 1 0 0 0 0 0 0 0 0
0 0 0 0 0 0 0 0 0 0 0 0 0 0 0 0 0 0 0 0 0 0 0 0 0 0 1 2 2 2 2 1 2 3 3 2 1 0 0 0 0 0 0
0 0 0 0 0 0 0 0 0 0 0 0 0 0 0 0 0 0 0 0 0 0 0 0 0 0 0 1 1 1 1 0 1 3 4 3 2 1 1 0 0 0 0
0 0 0 0 0 0 0 0 0 0 0 0 0 0 0 0 0 0 0 0 0 0 0 0 0 0 0 0 0 0 0 0 0 1 1 2 2 2 2 1 0 0 0
0 0 0 0 0 0 0 0 0 0 0 0 0 0 0 0 0 0 0 0 0 0 0 0 0 0 0 0 0 0 0 0 0 0 0 0 1 1 2 1 0 0 0
0 0 0 0 0 0 0 0 0 0 0 0 0 0 0 0 0 0 0 0 0 0 0 0 0 0 0 0 0 0 0 0 0 0 0 0 0 0 1 1 0 0 0
0 0 0 0 0 0 0 0 0 0 0 0 0 0 0 0 0 0 0 0 0 0 0 0 0 0 0 0 0 0 0 0 0 0 0 0 0 0 0 0 0 0 0
0 0 0 0 0 0 0 0 0 0 0 1 1 1 1 1 1 1 1 0 0 0 0 0 0 0 0 0 0 0 0 0 0 0 0 0 0 0 0 0 0 0 0
0 0 0 0 0 0 0 0 1 1 1 2 2 2 3 4 4 4 3 2 0 0 0 0 0 1 1 0 0 0 0 0 0 0 0 0 0 0 0 0 0 0 0
0 0 0 0 0 0 0 1 2 2 3 3 4 4 5 6 6 6 5 4 2 1 0 0 0 1 1 0 0 0 0 0 0 0 0 0 0 0 0 0 0 0 0
0 1 1 0 0 0 0 1 1 2 3 4 4 5 6 7 7 7 7 7 6 4 2 1 1 1 1 0 0 0 0 0 0 0 0 0 0 0 0 0 0 0 0
2 3 4 2 0 0 0 0 0 1 3 4 5 5 6 8 8 8 8 9 9 7 5 3 3 2 2 1 1 1 1 1 1 0 0 0 0 0 0 0 0 0 0
4 6 7 4 1 1 0 0 0 1 3 4 5 5 6 7 8 8 9 9 9 9 7 5 4 4 4 3 3 3 3 2 2 1 0 0 0 0 0 0 0 0 0
6 7 8 6 4 3 2 2 2 3 4 5 6 6 7 9 9 9 9 9 9 8 7 5 5 6 6 6 6 5 4 3 3 2 1 1 0 0 0 0 0 0 0
7 8 7 7 7 6 7 7 7 7 8 9 9 9 10 11 11 11 11 11 9 8 7 6 6 7 6 6 6 6 4 3 3 3 3 2 1 0 0 0 0 0 0
9 8 8 9 10 11 12 12 12 11 12 13 13 13 13 13 13 13 12 11 9 7 7 7 7 6 6 5 5 5 5 4 3 3 3 3 2 1 0 0 0 0 0
10 10 10 11 13 14 15 15 14 14 15 15 14 14 13 12 11 11 10 8 7 7 7 8 7 6 6 6 5 5 5 5 4 3 3 3 3 1 0 0 0 0 0
12 12 13 14 15 15 14 13 14 15 16 15 15 14 12 10 8 7 6 5 5 5 7 8 7 6 7 7 6 5 5 5 4 4 3 3 3 2 0 0 0 0 0
13 14 15 16 16 15 12 9 9 13 14 14 15 15 13 10 8 8 6 4 3 3 4 6 6 6 6 7 7 5 4 4 5 5 4 3 3 2 0 0 0 0 0
12 13 15 16 16 14 10 6 5 8 10 11 12 13 13 12 11 11 9 6 4 3 3 4 4 4 5 6 5 4 2 3 6 6 4 3 2 1 0 0 0 0 0
11 12 14 15 15 13 9 4 3 6 8 7 7 8 10 10 10 8 9 9 8 7 6 4 3 3 3 3 3 3 2 3 5 7 6 4 2 1 1 0 0 0 0
12 13 13 13 13 12 8 4 3 6 8 7 5 5 6 7 6 4 7 10 10 9 8 6 3 2 1 1 2 3 3 3 5 8 7 5 3 2 2 1 0 0 0